Observation data for Weinert on 11/09/2019      Previous  Date       Current Mesonet Observations  Soil Data  Daily Summary Page  Observations in Plain Language
KWE1 090600Z 19007KT 07/04 A3029 RMK A01 T00660037  RH  081%=      5-min Rain = 0
KWE1 090601Z 19007KT 07/04 A3029 RMK A01 T00670037  RH  081%=      5-min Rain = 0
KWE1 090602Z 19006KT 07/04 A3029 RMK A01 T00670037  RH  081%=      5-min Rain = 0
KWE1 090603Z 19006KT 07/04 A3029 RMK A01 T00670037  RH  081%=      5-min Rain = 0
KWE1 090604Z 19007KT 07/04 A3029 RMK A01 T00670037  RH  081%=      5-min Rain = 0
KWE1 090605Z 19006KT 07/04 A3029 RMK A01 T00670037  RH  081%=      5-min Rain = 0
KWE1 090606Z 19006KT 07/04 A3029 RMK A01 T00670037  RH  081%=      5-min Rain = 0
KWE1 090607Z 19007KT 07/04 A3029 RMK A01 T00670037  RH  081%=      5-min Rain = 0
KWE1 090608Z 19006KT 07/04 A3029 RMK A01 T00670037  RH  081%=      5-min Rain = 0
KWE1 090609Z 19006KT 07/04 A3029 RMK A01 T00670037  RH  081%=      5-min Rain = 0
KWE1 090610Z 19006KT 07/04 A3029 RMK A01 T00670037  RH  081%=      5-min Rain = 0
KWE1 090611Z 19006KT 07/04 A3029 RMK A01 T00670037  RH  081%=      5-min Rain = 0
KWE1 090612Z 19006KT 07/04 A3029 RMK A01 T00670037  RH  081%=      5-min Rain = 0
KWE1 090613Z 19006KT 07/04 A3029 RMK A01 T00670037  RH  081%=      5-min Rain = 0
KWE1 090614Z 19006KT 07/04 A3029 RMK A01 T00660037  RH  082%=      5-min Rain = 0
KWE1 090615Z 19007KT 07/04 A3029 RMK A01 T00660037  RH  082%=      5-min Rain = 0
KWE1 090616Z 19007KT 07/04 A3029 RMK A01 T00660037  RH  082%=      5-min Rain = 0
KWE1 090617Z 19006KT 07/04 A3029 RMK A01 T00660037  RH  082%=      5-min Rain = 0
KWE1 090618Z 19006KT 07/04 A3029 RMK A01 T00660037  RH  082%=      5-min Rain = 0
KWE1 090619Z 19007KT 07/04 A3029 RMK A01 T00660037  RH  082%=      5-min Rain = 0
KWE1 090620Z 19007KT 07/04 A3029 RMK A01 T00670038  RH  082%=      5-min Rain = 0
KWE1 090621Z 19007KT 07/04 A3029 RMK A01 T00670038  RH  082%=      5-min Rain = 0
KWE1 090622Z 19007KT 07/04 A3029 RMK A01 T00670038  RH  082%=      5-min Rain = 0
KWE1 090623Z 19007KT 07/04 A3029 RMK A01 T00670038  RH  082%=      5-min Rain = 0
KWE1 090624Z 19007KT 07/04 A3029 RMK A01 T00670038  RH  082%=      5-min Rain = 0
KWE1 090625Z 19008KT 07/04 A3029 RMK A01 T00670038  RH  082%=      5-min Rain = 0
KWE1 090626Z 19008KT 07/04 A3029 RMK A01 T00670038  RH  082%=      5-min Rain = 0
KWE1 090627Z 19008KT 07/04 A3029 RMK A01 T00670038  RH  082%=      5-min Rain = 0
KWE1 090628Z 19007KT 07/04 A3029 RMK A01 T00670038  RH  082%=      5-min Rain = 0
KWE1 090629Z 19007KT 07/04 A3029 RMK A01 T00670038  RH  082%=      5-min Rain = 0
KWE1 090630Z 19007KT 07/04 A3029 RMK A01 T00670038  RH  082%=      5-min Rain = 0
KWE1 090631Z 19007KT 07/04 A3029 RMK A01 T00670038  RH  082%=      5-min Rain = 0
KWE1 090632Z 19007KT 07/04 A3029 RMK A01 T00670038  RH  082%=      5-min Rain = 0
KWE1 090633Z 19007KT 07/04 A3029 RMK A01 T00670038  RH  082%=      5-min Rain = 0
KWE1 090634Z 19007KT 07/04 A3029 RMK A01 T00660038  RH  082%=      5-min Rain = 0
KWE1 090635Z 19006KT 07/04 A3029 RMK A01 T00660038  RH  082%=      5-min Rain = 0
KWE1 090636Z 19007KT 07/04 A3029 RMK A01 T00660038  RH  082%=      5-min Rain = 0
KWE1 090637Z 19007KT 07/04 A3029 RMK A01 T00660038  RH  082%=      5-min Rain = 0
KWE1 090638Z 19007KT 07/04 A3029 RMK A01 T00660038  RH  083%=      5-min Rain = 0
KWE1 090639Z 19006KT 07/04 A3029 RMK A01 T00660038  RH  082%=      5-min Rain = 0
KWE1 090640Z 20007KT 07/04 A3029 RMK A01 T00670038  RH  082%=      5-min Rain = 0
KWE1 090641Z 20007KT 07/04 A3029 RMK A01 T00670038  RH  082%=      5-min Rain = 0
KWE1 090642Z 20007KT 07/04 A3029 RMK A01 T00670038  RH  082%=      5-min Rain = 0
KWE1 090643Z 19006KT 07/04 A3029 RMK A01 T00670038  RH  082%=      5-min Rain = 0
KWE1 090644Z 20007KT 07/04 A3029 RMK A01 T00670038  RH  082%=      5-min Rain = 0
KWE1 090645Z 20007KT 07/04 A3029 RMK A01 T00670038  RH  082%=      5-min Rain = 0
KWE1 090646Z 20008KT 07/04 A3029 RMK A01 T00670038  RH  082%=      5-min Rain = 0
KWE1 090647Z 20007KT 07/04 A3029 RMK A01 T00670038  RH  082%=      5-min Rain = 0
KWE1 090648Z 20007KT 07/04 A3029 RMK A01 T00680038  RH  081%=      5-min Rain = 0
KWE1 090649Z 20006KT 07/04 A3029 RMK A01 T00670038  RH  081%=      5-min Rain = 0
KWE1 090650Z 20006KT 07/04 A3029 RMK A01 T00680038  RH  081%=      5-min Rain = 0
KWE1 090651Z 20006KT 07/04 A3029 RMK A01 T00670037  RH  081%=      5-min Rain = 0
KWE1 090652Z 20006KT 07/04 A3029 RMK A01 T00670038  RH  081%=      5-min Rain = 0
KWE1 090653Z 21005KT 07/04 A3029 RMK A01 T00670038  RH  081%=      5-min Rain = 0
KWE1 090654Z 21005KT 07/04 A3029 RMK A01 T00670037  RH  082%=      5-min Rain = 0
KWE1 090655Z 20005KT 07/04 A3029 RMK A01 T00670038  RH  082%=      5-min Rain = 0
KWE1 090656Z 20005KT 07/04 A3029 RMK A01 T00660037  RH  082%=      5-min Rain = 0
KWE1 090657Z 20005KT 07/04 A3029 RMK A01 T00660038  RH  082%=      5-min Rain = 0
KWE1 090658Z 20005KT 07/04 A3029 RMK A01 T00660037  RH  082%=      5-min Rain = 0
KWE1 090659Z 20004KT 07/04 A3029 RMK A01 T00660037  RH  082%=      5-min Rain = 0
KWE1 090700Z 20005KT 07/04 A3029 RMK A01 T00650037  RH  082%=      5-min Rain = 0
KWE1 090701Z 20006KT 07/04 A3029 RMK A01 T00650037  RH  082%=      5-min Rain = 0
KWE1 090702Z 20006KT 06/04 A3029 RMK A01 T00640037  RH  083%=      5-min Rain = 0
KWE1 090703Z 20006KT 06/04 A3029 RMK A01 T00640037  RH  083%=      5-min Rain = 0
KWE1 090704Z 20006KT 06/04 A3029 RMK A01 T00640037  RH  083%=      5-min Rain = 0
KWE1 090705Z 20005KT 06/04 A3029 RMK A01 T00640038  RH  083%=      5-min Rain = 0
KWE1 090706Z 20006KT 06/04 A3029 RMK A01 T00640037  RH  083%=      5-min Rain = 0
KWE1 090707Z 20006KT 06/04 A3029 RMK A01 T00640037  RH  083%=      5-min Rain = 0
KWE1 090708Z 20006KT 06/04 A3029 RMK A01 T00640037  RH  083%=      5-min Rain = 0
KWE1 090709Z 20006KT 06/04 A3029 RMK A01 T00630037  RH  083%=      5-min Rain = 0
KWE1 090710Z 20006KT 06/04 A3029 RMK A01 T00640037  RH  083%=      5-min Rain = 0
KWE1 090711Z 20006KT 06/04 A3029 RMK A01 T00640037  RH  083%=      5-min Rain = 0
KWE1 090712Z 20007KT 06/04 A3028 RMK A01 T00640038  RH  083%=      5-min Rain = 0
KWE1 090713Z 20006KT 06/04 A3028 RMK A01 T00630037  RH  083%=      5-min Rain = 0
KWE1 090714Z 20005KT 06/04 A3028 RMK A01 T00630037  RH  083%=      5-min Rain = 0
KWE1 090715Z 20006KT 06/04 A3028 RMK A01 T00630038  RH  084%=      5-min Rain = 0
KWE1 090716Z 20006KT 06/04 A3028 RMK A01 T00630037  RH  084%=      5-min Rain = 0
KWE1 090717Z 20006KT 06/04 A3028 RMK A01 T00630038  RH  084%=      5-min Rain = 0
KWE1 090718Z 20006KT 06/04 A3028 RMK A01 T00630038  RH  084%=      5-min Rain = 0
KWE1 090719Z 20006KT 06/04 A3028 RMK A01 T00630038  RH  084%=      5-min Rain = 0
KWE1 090720Z 21006KT 06/04 A3028 RMK A01 T00630037  RH  084%=      5-min Rain = 0
KWE1 090721Z 20006KT 06/04 A3028 RMK A01 T00620037  RH  084%=      5-min Rain = 0
KWE1 090722Z 21006KT 06/04 A3028 RMK A01 T00620037  RH  084%=      5-min Rain = 0
KWE1 090723Z 20007KT 06/04 A3028 RMK A01 T00620037  RH  084%=      5-min Rain = 0
KWE1 090724Z 21007KT 06/04 A3028 RMK A01 T00610036  RH  084%=      5-min Rain = 0
KWE1 090725Z 20007KT 06/04 A3028 RMK A01 T00610037  RH  085%=      5-min Rain = 0
KWE1 090726Z 21007KT 06/04 A3028 RMK A01 T00600037  RH  085%=      5-min Rain = 0
KWE1 090727Z 21007KT 06/04 A3028 RMK A01 T00600037  RH  085%=      5-min Rain = 0
KWE1 090728Z 21007KT 06/04 A3028 RMK A01 T00600037  RH  085%=      5-min Rain = 0
KWE1 090729Z 21007KT 06/04 A3028 RMK A01 T00590036  RH  085%=      5-min Rain = 0
KWE1 090730Z 21007KT 06/04 A3028 RMK A01 T00590036  RH  085%=      5-min Rain = 0
KWE1 090731Z 21007KT 06/04 A3028 RMK A01 T00590036  RH  086%=      5-min Rain = 0
KWE1 090732Z 21007KT 06/04 A3028 RMK A01 T00590036  RH  086%=      5-min Rain = 0
KWE1 090733Z 21007KT 06/04 A3028 RMK A01 T00590037  RH  086%=      5-min Rain = 0
KWE1 090734Z 21007KT 06/04 A3028 RMK A01 T00580037  RH  086%=      5-min Rain = 0
KWE1 090735Z 20007KT 06/04 A3028 RMK A01 T00580037  RH  086%=      5-min Rain = 0
KWE1 090736Z 20007KT 06/04 A3028 RMK A01 T00590037  RH  086%=      5-min Rain = 0
KWE1 090737Z 20007KT 06/04 A3028 RMK A01 T00590037  RH  086%=      5-min Rain = 0
KWE1 090738Z 20007KT 06/04 A3028 RMK A01 T00580037  RH  086%=      5-min Rain = 0
KWE1 090739Z 20007KT 06/04 A3028 RMK A01 T00590038  RH  086%=      5-min Rain = 0
KWE1 090740Z 21006KT 06/04 A3028 RMK A01 T00580038  RH  087%=      5-min Rain = 0
KWE1 090741Z 20007KT 06/04 A3028 RMK A01 T00590038  RH  087%=      5-min Rain = 0
KWE1 090742Z 21007KT 06/04 A3028 RMK A01 T00590038  RH  087%=      5-min Rain = 0
KWE1 090743Z 20007KT 06/04 A3028 RMK A01 T00590039  RH  087%=      5-min Rain = 0
KWE1 090744Z 20006KT 06/04 A3028 RMK A01 T00600039  RH  087%=      5-min Rain = 0
KWE1 090745Z 20007KT 06/04 A3028 RMK A01 T00590039  RH  087%=      5-min Rain = 0
KWE1 090746Z 20006KT 06/04 A3028 RMK A01 T00600039  RH  087%=      5-min Rain = 0
KWE1 090747Z 21006KT 06/04 A3028 RMK A01 T00590039  RH  087%=      5-min Rain = 0
KWE1 090748Z 21006KT 06/04 A3028 RMK A01 T00600039  RH  087%=      5-min Rain = 0
KWE1 090749Z 21006KT 06/04 A3028 RMK A01 T00590039  RH  087%=      5-min Rain = 0
KWE1 090750Z 21006KT 06/04 A3028 RMK A01 T00590039  RH  087%=      5-min Rain = 0
KWE1 090751Z 21006KT 06/04 A3028 RMK A01 T00580038  RH  087%=      5-min Rain = 0
KWE1 090752Z 21007KT 06/04 A3028 RMK A01 T00580037  RH  087%=      5-min Rain = 0
KWE1 090753Z 21007KT 06/04 A3028 RMK A01 T00580038  RH  087%=      5-min Rain = 0
KWE1 090754Z 21007KT 06/04 A3028 RMK A01 T00580038  RH  087%=      5-min Rain = 0
KWE1 090755Z 21006KT 06/04 A3028 RMK A01 T00580038  RH  087%=      5-min Rain = 0
KWE1 090756Z 21006KT 06/04 A3027 RMK A01 T00570038  RH  088%=      5-min Rain = 0
KWE1 090757Z 21006KT 06/04 A3027 RMK A01 T00570038  RH  088%=      5-min Rain = 0
KWE1 090758Z 21007KT 06/04 A3027 RMK A01 T00570038  RH  088%=      5-min Rain = 0
KWE1 090759Z 21007KT 06/04 A3027 RMK A01 T00570039  RH  088%=      5-min Rain = 0
KWE1 090800Z 21006KT 06/04 A3027 RMK A01 T00570039  RH  088%=      5-min Rain = 0
KWE1 090801Z 21006KT 06/04 A3027 RMK A01 T00570039  RH  088%=      5-min Rain = 0
KWE1 090802Z 21007KT 06/04 A3027 RMK A01 T00570039  RH  088%=      5-min Rain = 0
KWE1 090803Z 21007KT 06/04 A3027 RMK A01 T00570039  RH  088%=      5-min Rain = 0
KWE1 090804Z 21007KT 06/04 A3027 RMK A01 T00570039  RH  088%=      5-min Rain = 0
KWE1 090805Z 21007KT 06/04 A3027 RMK A01 T00570039  RH  088%=      5-min Rain = 0
KWE1 090806Z 21007KT 06/04 A3027 RMK A01 T00570039  RH  088%=      5-min Rain = 0
KWE1 090807Z 21007KT 06/04 A3027 RMK A01 T00560039  RH  088%=      5-min Rain = 0
KWE1 090808Z 21007KT 06/04 A3027 RMK A01 T00560039  RH  088%=      5-min Rain = 0
KWE1 090809Z 21006KT 06/04 A3027 RMK A01 T00560039  RH  089%=      5-min Rain = 0
KWE1 090810Z 21007KT 06/04 A3027 RMK A01 T00560039  RH  089%=      5-min Rain = 0
KWE1 090811Z 21007KT 06/04 A3027 RMK A01 T00560039  RH  089%=      5-min Rain = 0
KWE1 090812Z 21007KT 06/04 A3027 RMK A01 T00560039  RH  089%=      5-min Rain = 0
KWE1 090813Z 21007KT 06/04 A3027 RMK A01 T00560039  RH  089%=      5-min Rain = 0
KWE1 090814Z 21007KT 06/04 A3027 RMK A01 T00560039  RH  089%=      5-min Rain = 0
KWE1 090815Z 21006KT 06/04 A3027 RMK A01 T00560039  RH  089%=      5-min Rain = 0
KWE1 090816Z 21006KT 06/04 A3027 RMK A01 T00550039  RH  089%=      5-min Rain = 0
KWE1 090817Z 21006KT 06/04 A3027 RMK A01 T00550039  RH  089%=      5-min Rain = 0
KWE1 090818Z 21006KT 06/04 A3027 RMK A01 T00550039  RH  089%=      5-min Rain = 0
KWE1 090819Z 21006KT 06/04 A3027 RMK A01 T00550039  RH  089%=      5-min Rain = 0
KWE1 090820Z 21006KT 05/04 A3027 RMK A01 T00540038  RH  089%=      5-min Rain = 0
KWE1 090821Z 21005KT 05/04 A3027 RMK A01 T00540038  RH  089%=      5-min Rain = 0
KWE1 090822Z 21005KT 05/04 A3027 RMK A01 T00540038  RH  090%=      5-min Rain = 0
KWE1 090823Z 21005KT 05/04 A3027 RMK A01 T00540038  RH  090%=      5-min Rain = 0
KWE1 090824Z 21005KT 05/04 A3027 RMK A01 T00540038  RH  090%=      5-min Rain = 0
KWE1 090825Z 22005KT 05/04 A3027 RMK A01 T00530038  RH  090%=      5-min Rain = 0
KWE1 090826Z 22005KT 05/04 A3027 RMK A01 T00530038  RH  090%=      5-min Rain = 0
KWE1 090827Z 21005KT 05/04 A3027 RMK A01 T00530038  RH  090%=      5-min Rain = 0
KWE1 090828Z 21005KT 05/04 A3027 RMK A01 T00530038  RH  090%=      5-min Rain = 0
KWE1 090829Z 21005KT 05/04 A3027 RMK A01 T00530037  RH  090%=      5-min Rain = 0
KWE1 090830Z 21005KT 05/04 A3027 RMK A01 T00520037  RH  090%=      5-min Rain = 0
KWE1 090831Z 21005KT 05/04 A3027 RMK A01 T00520037  RH  090%=      5-min Rain = 0
KWE1 090832Z 21006KT 05/04 A3027 RMK A01 T00520037  RH  090%=      5-min Rain = 0
KWE1 090833Z 21006KT 05/04 A3027 RMK A01 T00520037  RH  090%=      5-min Rain = 0
KWE1 090834Z 21006KT 05/04 A3027 RMK A01 T00520037  RH  090%=      5-min Rain = 0
KWE1 090835Z 21005KT 05/04 A3027 RMK A01 T00510037  RH  090%=      5-min Rain = 0
KWE1 090836Z 21006KT 05/04 A3027 RMK A01 T00520038  RH  091%=      5-min Rain = 0
KWE1 090837Z 21006KT 05/04 A3027 RMK A01 T00520038  RH  091%=      5-min Rain = 0
KWE1 090838Z 21006KT 05/04 A3027 RMK A01 T00520038  RH  091%=      5-min Rain = 0
KWE1 090839Z 21005KT 05/04 A3027 RMK A01 T00520038  RH  091%=      5-min Rain = 0
KWE1 090840Z 21005KT 05/04 A3027 RMK A01 T00520038  RH  091%=      5-min Rain = 0
KWE1 090841Z 21006KT 05/04 A3027 RMK A01 T00520038  RH  091%=      5-min Rain = 0
KWE1 090842Z 21005KT 05/04 A3026 RMK A01 T00520038  RH  091%=      5-min Rain = 0
KWE1 090843Z 21006KT 05/04 A3026 RMK A01 T00520038  RH  091%=      5-min Rain = 0
KWE1 090844Z 21006KT 05/04 A3026 RMK A01 T00520038  RH  091%=      5-min Rain = 0
KWE1 090845Z 21006KT 05/04 A3026 RMK A01 T00520038  RH  091%=      5-min Rain = 0
KWE1 090846Z 21006KT 05/04 A3026 RMK A01 T00520038  RH  091%=      5-min Rain = 0
KWE1 090847Z 21005KT 05/04 A3026 RMK A01 T00520038  RH  091%=      5-min Rain = 0
KWE1 090848Z 21006KT 05/04 A3026 RMK A01 T00520038  RH  091%=      5-min Rain = 0
KWE1 090849Z 21006KT 05/04 A3026 RMK A01 T00520038  RH  091%=      5-min Rain = 0
KWE1 090850Z 21005KT 05/04 A3026 RMK A01 T00520038  RH  091%=      5-min Rain = 0
KWE1 090851Z 21005KT 05/04 A3026 RMK A01 T00520038  RH  091%=      5-min Rain = 0
KWE1 090852Z 21005KT 05/04 A3026 RMK A01 T00520038  RH  091%=      5-min Rain = 0
KWE1 090853Z 21005KT 05/04 A3026 RMK A01 T00520038  RH  091%=      5-min Rain = 0
KWE1 090854Z 21005KT 05/04 A3026 RMK A01 T00520038  RH  091%=      5-min Rain = 0
KWE1 090855Z 21005KT 05/04 A3026 RMK A01 T00520038  RH  091%=      5-min Rain = 0
KWE1 090856Z 21005KT 05/04 A3026 RMK A01 T00510038  RH  091%=      5-min Rain = 0
KWE1 090857Z 21005KT 05/04 A3026 RMK A01 T00510038  RH  091%=      5-min Rain = 0
KWE1 090858Z 21005KT 05/04 A3026 RMK A01 T00510038  RH  091%=      5-min Rain = 0
KWE1 090859Z 21005KT 05/04 A3026 RMK A01 T00510038  RH  091%=      5-min Rain = 0
KWE1 090900Z 21004KT 05/04 A3026 RMK A01 T00510037  RH  091%=      5-min Rain = 0
KWE1 090901Z 21004KT 05/04 A3026 RMK A01 T00510038  RH  091%=      5-min Rain = 0
KWE1 090902Z 21004KT 05/04 A3026 RMK A01 T00510038  RH  091%=      5-min Rain = 0
KWE1 090903Z 21004KT 05/04 A3026 RMK A01 T00510038  RH  091%=      5-min Rain = 0
KWE1 090904Z 21004KT 05/04 A3026 RMK A01 T00510038  RH  091%=      5-min Rain = 0
KWE1 090905Z 21005KT 05/04 A3026 RMK A01 T00500037  RH  091%=      5-min Rain = 0
KWE1 090906Z 21005KT 05/04 A3026 RMK A01 T00500037  RH  091%=      5-min Rain = 0
KWE1 090907Z 21005KT 05/04 A3026 RMK A01 T00500037  RH  091%=      5-min Rain = 0
KWE1 090908Z 21005KT 05/04 A3026 RMK A01 T00500037  RH  091%=      5-min Rain = 0
KWE1 090909Z 21004KT 05/04 A3026 RMK A01 T00500037  RH  091%=      5-min Rain = 0
KWE1 090910Z 21005KT 05/04 A3026 RMK A01 T00500037  RH  091%=      5-min Rain = 0
KWE1 090911Z 21005KT 05/04 A3026 RMK A01 T00500037  RH  091%=      5-min Rain = 0
KWE1 090912Z 21004KT 05/04 A3026 RMK A01 T00500037  RH  091%=      5-min Rain = 0
KWE1 090913Z 21004KT 05/04 A3026 RMK A01 T00500037  RH  091%=      5-min Rain = 0
KWE1 090914Z 21005KT 05/04 A3026 RMK A01 T00500037  RH  091%=      5-min Rain = 0
KWE1 090915Z 21004KT 05/04 A3026 RMK A01 T00490037  RH  091%=      5-min Rain = 0
KWE1 090916Z 21004KT 05/04 A3026 RMK A01 T00490037  RH  091%=      5-min Rain = 0
KWE1 090917Z 21004KT 05/04 A3026 RMK A01 T00490037  RH  091%=      5-min Rain = 0
KWE1 090918Z 21004KT 05/04 A3026 RMK A01 T00490037  RH  092%=      5-min Rain = 0
KWE1 090919Z 21004KT 05/04 A3026 RMK A01 T00490036  RH  092%=      5-min Rain = 0
KWE1 090920Z 22004KT 05/04 A3026 RMK A01 T00490036  RH  091%=      5-min Rain = 0
KWE1 090921Z 21004KT 05/04 A3026 RMK A01 T00480035  RH  091%=      5-min Rain = 0
KWE1 090922Z 21004KT 05/04 A3026 RMK A01 T00480035  RH  091%=      5-min Rain = 0
KWE1 090923Z 21004KT 05/04 A3026 RMK A01 T00480035  RH  091%=      5-min Rain = 0
KWE1 090924Z 21004KT 05/04 A3026 RMK A01 T00480035  RH  092%=      5-min Rain = 0
KWE1 090925Z 21004KT 05/04 A3026 RMK A01 T00480035  RH  092%=      5-min Rain = 0
KWE1 090926Z 22004KT 05/04 A3026 RMK A01 T00470035  RH  092%=      5-min Rain = 0
KWE1 090927Z 21004KT 05/04 A3026 RMK A01 T00480035  RH  092%=      5-min Rain = 0
KWE1 090928Z 22004KT 05/04 A3026 RMK A01 T00470035  RH  092%=      5-min Rain = 0
KWE1 090929Z 21004KT 05/04 A3025 RMK A01 T00470035  RH  092%=      5-min Rain = 0
KWE1 090930Z 21004KT 05/04 A3025 RMK A01 T00470035  RH  092%=      5-min Rain = 0
KWE1 090931Z 21005KT 05/03 A3025 RMK A01 T00470034  RH  092%=      5-min Rain = 0
KWE1 090932Z 21004KT 05/03 A3025 RMK A01 T00470034  RH  092%=      5-min Rain = 0
KWE1 090933Z 21005KT 05/03 A3025 RMK A01 T00470034  RH  092%=      5-min Rain = 0
KWE1 090934Z 21005KT 05/03 A3025 RMK A01 T00470034  RH  092%=      5-min Rain = 0
KWE1 090935Z 22004KT 05/03 A3025 RMK A01 T00460034  RH  092%=      5-min Rain = 0
KWE1 090936Z 22005KT 05/04 A3025 RMK A01 T00470035  RH  092%=      5-min Rain = 0
KWE1 090937Z 22004KT 05/03 A3025 RMK A01 T00460034  RH  092%=      5-min Rain = 0
KWE1 090938Z 22004KT 05/03 A3025 RMK A01 T00460034  RH  092%=      5-min Rain = 0
KWE1 090939Z 22004KT 05/03 A3025 RMK A01 T00460034  RH  092%=      5-min Rain = 0
KWE1 090940Z 22004KT 05/03 A3025 RMK A01 T00460034  RH  092%=      5-min Rain = 0
KWE1 090941Z 22004KT 05/03 A3025 RMK A01 T00460034  RH  092%=      5-min Rain = 0
KWE1 090942Z 21003KT 05/03 A3025 RMK A01 T00460034  RH  092%=      5-min Rain = 0
KWE1 090943Z 21003KT 05/03 A3025 RMK A01 T00450034  RH  092%=      5-min Rain = 0
KWE1 090944Z 21003KT 05/03 A3025 RMK A01 T00460034  RH  092%=      5-min Rain = 0
KWE1 090945Z 21003KT 05/04 A3025 RMK A01 T00460035  RH  092%=      5-min Rain = 0
KWE1 090946Z 21003KT 05/04 A3025 RMK A01 T00460035  RH  092%=      5-min Rain = 0
KWE1 090947Z 21003KT 05/04 A3025 RMK A01 T00460035  RH  092%=      5-min Rain = 0
KWE1 090948Z 21003KT 05/04 A3025 RMK A01 T00460035  RH  092%=      5-min Rain = 0
KWE1 090949Z 21003KT 05/04 A3025 RMK A01 T00460035  RH  092%=      5-min Rain = 0
KWE1 090950Z 21003KT 05/04 A3025 RMK A01 T00460035  RH  092%=      5-min Rain = 0
KWE1 090951Z 21003KT 05/04 A3025 RMK A01 T00460035  RH  092%=      5-min Rain = 0
KWE1 090952Z 21003KT 05/04 A3025 RMK A01 T00460035  RH  092%=      5-min Rain = 0
KWE1 090953Z 21003KT 05/04 A3025 RMK A01 T00460035  RH  092%=      5-min Rain = 0
KWE1 090954Z 21003KT 05/03 A3025 RMK A01 T00460034  RH  092%=      5-min Rain = 0
KWE1 090955Z 21003KT 05/04 A3025 RMK A01 T00460035  RH  092%=      5-min Rain = 0
KWE1 090956Z 21003KT 05/03 A3025 RMK A01 T00460034  RH  092%=      5-min Rain = 0
KWE1 090957Z 21004KT 05/03 A3025 RMK A01 T00460034  RH  092%=      5-min Rain = 0
KWE1 090958Z 21004KT 05/03 A3025 RMK A01 T00460034  RH  092%=      5-min Rain = 0
KWE1 090959Z 21004KT 05/03 A3025 RMK A01 T00450034  RH  092%=      5-min Rain = 0
KWE1 091000Z 21005KT 05/04 A3025 RMK A01 T00460035  RH  093%=      5-min Rain = 0
KWE1 091001Z 20005KT 05/04 A3025 RMK A01 T00460035  RH  093%=      5-min Rain = 0
KWE1 091002Z 20005KT 05/04 A3025 RMK A01 T00460035  RH  093%=      5-min Rain = 0
KWE1 091003Z 20005KT 05/04 A3024 RMK A01 T00460035  RH  093%=      5-min Rain = 0
KWE1 091004Z 20005KT 05/04 A3024 RMK A01 T00460035  RH  093%=      5-min Rain = 0
KWE1 091005Z 20005KT 05/04 A3024 RMK A01 T00460035  RH  093%=      5-min Rain = 0
KWE1 091006Z 20005KT 05/04 A3024 RMK A01 T00460035  RH  093%=      5-min Rain = 0
KWE1 091007Z 20005KT 05/04 A3024 RMK A01 T00460035  RH  093%=      5-min Rain = 0
KWE1 091008Z 20005KT 05/04 A3024 RMK A01 T00460035  RH  093%=      5-min Rain = 0
KWE1 091009Z 20005KT 05/04 A3024 RMK A01 T00460035  RH  093%=      5-min Rain = 0
KWE1 091010Z 20005KT 05/04 A3024 RMK A01 T00460035  RH  093%=      5-min Rain = 0
KWE1 091011Z 20005KT 05/04 A3024 RMK A01 T00460035  RH  093%=      5-min Rain = 0
KWE1 091012Z 20005KT 05/04 A3024 RMK A01 T00460035  RH  093%=      5-min Rain = 0
KWE1 091013Z 20004KT 05/04 A3024 RMK A01 T00460035  RH  093%=      5-min Rain = 0
KWE1 091014Z 20004KT 05/04 A3024 RMK A01 T00460035  RH  093%=      5-min Rain = 0
KWE1 091015Z 20005KT 05/04 A3024 RMK A01 T00470036  RH  093%=      5-min Rain = 0
KWE1 091016Z 20005KT 05/04 A3024 RMK A01 T00470036  RH  093%=      5-min Rain = 0
KWE1 091017Z 20005KT 05/04 A3024 RMK A01 T00470036  RH  093%=      5-min Rain = 0
KWE1 091018Z 20005KT 05/04 A3024 RMK A01 T00470037  RH  093%=      5-min Rain = 0
KWE1 091019Z 20005KT 05/04 A3024 RMK A01 T00480037  RH  093%=      5-min Rain = 0
KWE1 091020Z 21005KT 05/04 A3024 RMK A01 T00480037  RH  093%=      5-min Rain = 0
KWE1 091021Z 20005KT 05/04 A3024 RMK A01 T00480037  RH  093%=      5-min Rain = 0
KWE1 091022Z 20005KT 05/04 A3024 RMK A01 T00490038  RH  093%=      5-min Rain = 0
KWE1 091023Z 20005KT 05/04 A3024 RMK A01 T00490038  RH  093%=      5-min Rain = 0
KWE1 091024Z 20005KT 05/04 A3024 RMK A01 T00490038  RH  093%=      5-min Rain = 0
KWE1 091025Z 20004KT 05/04 A3024 RMK A01 T00490038  RH  093%=      5-min Rain = 0
KWE1 091026Z 20005KT 05/04 A3024 RMK A01 T00490038  RH  092%=      5-min Rain = 0
KWE1 091027Z 21004KT 05/04 A3024 RMK A01 T00490038  RH  092%=      5-min Rain = 0
KWE1 091028Z 20004KT 05/04 A3024 RMK A01 T00490038  RH  092%=      5-min Rain = 0
KWE1 091029Z 20004KT 05/04 A3024 RMK A01 T00490038  RH  092%=      5-min Rain = 0
KWE1 091030Z 20004KT 05/04 A3023 RMK A01 T00490038  RH  092%=      5-min Rain = 0
KWE1 091031Z 20005KT 05/04 A3023 RMK A01 T00490038  RH  092%=      5-min Rain = 0
KWE1 091032Z 21005KT 05/04 A3023 RMK A01 T00490038  RH  092%=      5-min Rain = 0
KWE1 091033Z 21005KT 05/04 A3023 RMK A01 T00490038  RH  092%=      5-min Rain = 0
KWE1 091034Z 20005KT 05/04 A3023 RMK A01 T00490037  RH  092%=      5-min Rain = 0
KWE1 091035Z 20005KT 05/04 A3023 RMK A01 T00490038  RH  092%=      5-min Rain = 0
KWE1 091036Z 21005KT 05/04 A3023 RMK A01 T00500038  RH  092%=      5-min Rain = 0
KWE1 091037Z 21005KT 05/04 A3023 RMK A01 T00500038  RH  092%=      5-min Rain = 0
KWE1 091038Z 21006KT 05/04 A3023 RMK A01 T00500038  RH  092%=      5-min Rain = 0
KWE1 091039Z 21006KT 05/04 A3023 RMK A01 T00500038  RH  092%=      5-min Rain = 0
KWE1 091040Z 21006KT 05/04 A3023 RMK A01 T00500038  RH  092%=      5-min Rain = 0
KWE1 091041Z 20006KT 05/04 A3023 RMK A01 T00500038  RH  092%=      5-min Rain = 0
KWE1 091042Z 21006KT 05/04 A3023 RMK A01 T00500038  RH  092%=      5-min Rain = 0
KWE1 091043Z 20006KT 05/04 A3023 RMK A01 T00510038  RH  092%=      5-min Rain = 0
KWE1 091044Z 21006KT 05/04 A3023 RMK A01 T00510038  RH  092%=      5-min Rain = 0
KWE1 091045Z 21006KT 05/04 A3023 RMK A01 T00510039  RH  092%=      5-min Rain = 0
KWE1 091046Z 21006KT 05/04 A3023 RMK A01 T00510038  RH  092%=      5-min Rain = 0
KWE1 091047Z 21006KT 05/04 A3023 RMK A01 T00500038  RH  092%=      5-min Rain = 0
KWE1 091048Z 21005KT 05/04 A3024 RMK A01 T00500037  RH  091%=      5-min Rain = 0
KWE1 091049Z 21005KT 05/04 A3024 RMK A01 T00500037  RH  091%=      5-min Rain = 0
KWE1 091050Z 21005KT 05/04 A3024 RMK A01 T00500037  RH  091%=      5-min Rain = 0
KWE1 091051Z 21005KT 05/04 A3024 RMK A01 T00500037  RH  091%=      5-min Rain = 0
KWE1 091052Z 21005KT 05/04 A3024 RMK A01 T00500037  RH  091%=      5-min Rain = 0
KWE1 091053Z 21004KT 05/04 A3024 RMK A01 T00490036  RH  091%=      5-min Rain = 0
KWE1 091054Z 21004KT 05/04 A3024 RMK A01 T00490037  RH  091%=      5-min Rain = 0
KWE1 091055Z 21004KT 05/04 A3024 RMK A01 T00490036  RH  091%=      5-min Rain = 0
KWE1 091056Z 21005KT 05/04 A3024 RMK A01 T00490036  RH  091%=      5-min Rain = 0
KWE1 091057Z 21004KT 05/04 A3024 RMK A01 T00490036  RH  091%=      5-min Rain = 0
KWE1 091058Z 21004KT 05/04 A3024 RMK A01 T00480036  RH  091%=      5-min Rain = 0
KWE1 091059Z 21005KT 05/04 A3024 RMK A01 T00480036  RH  091%=      5-min Rain = 0
KWE1 091100Z 21004KT 05/04 A3024 RMK A01 T00490036  RH  092%=      5-min Rain = 0
KWE1 091101Z 21005KT 05/04 A3024 RMK A01 T00480036  RH  092%=      5-min Rain = 0
KWE1 091102Z 21005KT 05/04 A3023 RMK A01 T00480035  RH  092%=      5-min Rain = 0
KWE1 091103Z 21005KT 05/04 A3023 RMK A01 T00480035  RH  092%=      5-min Rain = 0
KWE1 091104Z 21005KT 05/04 A3023 RMK A01 T00480035  RH  092%=      5-min Rain = 0
KWE1 091105Z 21005KT 05/04 A3023 RMK A01 T00480036  RH  092%=      5-min Rain = 0
KWE1 091106Z 21006KT 05/04 A3023 RMK A01 T00480036  RH  092%=      5-min Rain = 0
KWE1 091107Z 21005KT 05/04 A3023 RMK A01 T00480036  RH  092%=      5-min Rain = 0
KWE1 091108Z 21005KT 05/04 A3023 RMK A01 T00480036  RH  092%=      5-min Rain = 0
KWE1 091109Z 21006KT 05/04 A3023 RMK A01 T00480036  RH  092%=      5-min Rain = 0
KWE1 091110Z 21006KT 05/04 A3023 RMK A01 T00480036  RH  092%=      5-min Rain = 0
KWE1 091111Z 21005KT 05/04 A3023 RMK A01 T00480035  RH  092%=      5-min Rain = 0
KWE1 091112Z 21005KT 05/04 A3023 RMK A01 T00480036  RH  092%=      5-min Rain = 0
KWE1 091113Z 21005KT 05/04 A3023 RMK A01 T00480036  RH  092%=      5-min Rain = 0
KWE1 091114Z 21006KT 05/04 A3023 RMK A01 T00480035  RH  092%=      5-min Rain = 0
KWE1 091115Z 21006KT 05/04 A3023 RMK A01 T00470035  RH  092%=      5-min Rain = 0
KWE1 091116Z 21005KT 05/04 A3023 RMK A01 T00470035  RH  092%=      5-min Rain = 0
KWE1 091117Z 21006KT 05/04 A3023 RMK A01 T00470035  RH  092%=      5-min Rain = 0
KWE1 091118Z 21005KT 05/04 A3023 RMK A01 T00470035  RH  092%=      5-min Rain = 0
KWE1 091119Z 21006KT 05/04 A3023 RMK A01 T00470035  RH  092%=      5-min Rain = 0
KWE1 091120Z 21006KT 05/04 A3023 RMK A01 T00470035  RH  092%=      5-min Rain = 0
KWE1 091121Z 21005KT 05/04 A3023 RMK A01 T00470035  RH  092%=      5-min Rain = 0
KWE1 091122Z 20006KT 05/04 A3023 RMK A01 T00470035  RH  092%=      5-min Rain = 0
KWE1 091123Z 21006KT 05/04 A3023 RMK A01 T00470035  RH  092%=      5-min Rain = 0
KWE1 091124Z 21006KT 05/04 A3023 RMK A01 T00480036  RH  092%=      5-min Rain = 0
KWE1 091125Z 20006KT 05/04 A3023 RMK A01 T00480036  RH  092%=      5-min Rain = 0
KWE1 091126Z 20006KT 05/04 A3023 RMK A01 T00480036  RH  092%=      5-min Rain = 0
KWE1 091127Z 21005KT 05/04 A3023 RMK A01 T00480036  RH  092%=      5-min Rain = 0
KWE1 091128Z 20005KT 05/04 A3023 RMK A01 T00480036  RH  092%=      5-min Rain = 0
KWE1 091129Z 20006KT 05/04 A3023 RMK A01 T00490037  RH  092%=      5-min Rain = 0
KWE1 091130Z 20005KT 05/04 A3023 RMK A01 T00490037  RH  092%=      5-min Rain = 0
KWE1 091131Z 20005KT 05/04 A3023 RMK A01 T00490037  RH  092%=      5-min Rain = 0
KWE1 091132Z 20005KT 05/04 A3023 RMK A01 T00490038  RH  092%=      5-min Rain = 0
KWE1 091133Z 20005KT 05/04 A3023 RMK A01 T00490038  RH  092%=      5-min Rain = 0
KWE1 091134Z 20005KT 05/04 A3023 RMK A01 T00490038  RH  092%=      5-min Rain = 0
KWE1 091135Z 21005KT 05/04 A3023 RMK A01 T00500038  RH  092%=      5-min Rain = 0
KWE1 091136Z 20005KT 05/04 A3023 RMK A01 T00490038  RH  092%=      5-min Rain = 0
KWE1 091137Z 20005KT 05/04 A3023 RMK A01 T00500038  RH  092%=      5-min Rain = 0
KWE1 091138Z 21005KT 05/04 A3023 RMK A01 T00500038  RH  092%=      5-min Rain = 0
KWE1 091139Z 21005KT 05/04 A3023 RMK A01 T00500038  RH  092%=      5-min Rain = 0
KWE1 091140Z 21005KT 05/04 A3023 RMK A01 T00500038  RH  092%=      5-min Rain = 0
KWE1 091141Z 21004KT 05/04 A3023 RMK A01 T00500038  RH  092%=      5-min Rain = 0
KWE1 091142Z 21005KT 05/04 A3023 RMK A01 T00500038  RH  092%=      5-min Rain = 0
KWE1 091143Z 21005KT 05/04 A3023 RMK A01 T00500038  RH  092%=      5-min Rain = 0
KWE1 091144Z 21005KT 05/04 A3023 RMK A01 T00490037  RH  092%=      5-min Rain = 0
KWE1 091145Z 21005KT 05/04 A3023 RMK A01 T00490037  RH  092%=      5-min Rain = 0
KWE1 091146Z 21005KT 05/04 A3023 RMK A01 T00490037  RH  092%=      5-min Rain = 0
KWE1 091147Z 21004KT 05/04 A3023 RMK A01 T00490037  RH  092%=      5-min Rain = 0
KWE1 091148Z 21004KT 05/04 A3023 RMK A01 T00490036  RH  092%=      5-min Rain = 0
KWE1 091149Z 20005KT 05/04 A3023 RMK A01 T00480036  RH  092%=      5-min Rain = 0
KWE1 091150Z 20005KT 05/04 A3023 RMK A01 T00480036  RH  092%=      5-min Rain = 0
KWE1 091151Z 21005KT 05/04 A3023 RMK A01 T00480037  RH  092%=      5-min Rain = 0
KWE1 091152Z 20005KT 05/04 A3023 RMK A01 T00490037  RH  092%=      5-min Rain = 0
KWE1 091153Z 20006KT 05/04 A3023 RMK A01 T00490038  RH  092%=      5-min Rain = 0
KWE1 091154Z 20006KT 05/04 A3023 RMK A01 T00490038  RH  092%=      5-min Rain = 0
KWE1 091155Z 20006KT 05/04 A3023 RMK A01 T00490038  RH  092%=      5-min Rain = 0
KWE1 091156Z 20007KT 05/04 A3023 RMK A01 T00500038  RH  092%=      5-min Rain = 0
KWE1 091157Z 20007KT 05/04 A3023 RMK A01 T00500038  RH  092%=      5-min Rain = 0
KWE1 091158Z 20007KT 05/04 A3023 RMK A01 T00500038  RH  092%=      5-min Rain = 0
KWE1 091159Z 20007KT 05/04 A3023 RMK A01 T00500038  RH  092%=      5-min Rain = 0
KWE1 091200Z 20006KT 05/04 A3023 RMK A01 T00500038  RH  092%=      5-min Rain = 0
KWE1 091201Z 20006KT 05/04 A3023 RMK A01 T00500038  RH  092%=      5-min Rain = 0
KWE1 091202Z 20006KT 05/04 A3023 RMK A01 T00500038  RH  092%=      5-min Rain = 0
KWE1 091203Z 20006KT 05/04 A3023 RMK A01 T00500038  RH  092%=      5-min Rain = 0
KWE1 091204Z 20006KT 05/04 A3023 RMK A01 T00500038  RH  092%=      5-min Rain = 0
KWE1 091205Z 20005KT 05/04 A3023 RMK A01 T00500038  RH  092%=      5-min Rain = 0
KWE1 091206Z 20005KT 05/04 A3023 RMK A01 T00500038  RH  092%=      5-min Rain = 0
KWE1 091207Z 21005KT 05/04 A3023 RMK A01 T00500038  RH  092%=      5-min Rain = 0
KWE1 091208Z 21005KT 05/04 A3023 RMK A01 T00490037  RH  092%=      5-min Rain = 0
KWE1 091209Z 21005KT 05/04 A3023 RMK A01 T00490038  RH  092%=      5-min Rain = 0
KWE1 091210Z 21006KT 05/04 A3023 RMK A01 T00490038  RH  092%=      5-min Rain = 0
KWE1 091211Z 21006KT 05/04 A3023 RMK A01 T00490038  RH  092%=      5-min Rain = 0
KWE1 091212Z 21005KT 05/04 A3023 RMK A01 T00490038  RH  092%=      5-min Rain = 0
KWE1 091213Z 21006KT 05/04 A3023 RMK A01 T00490038  RH  092%=      5-min Rain = 0
KWE1 091214Z 21006KT 05/04 A3023 RMK A01 T00500038  RH  092%=      5-min Rain = 0
KWE1 091215Z 21007KT 05/04 A3023 RMK A01 T00490038  RH  092%=      5-min Rain = 0
KWE1 091216Z 21007KT 05/04 A3023 RMK A01 T00490038  RH  092%=      5-min Rain = 0
KWE1 091217Z 21007KT 05/04 A3023 RMK A01 T00500038  RH  092%=      5-min Rain = 0
KWE1 091218Z 20007KT 05/04 A3023 RMK A01 T00490038  RH  092%=      5-min Rain = 0
KWE1 091219Z 20007KT 05/04 A3023 RMK A01 T00500038  RH  092%=      5-min Rain = 0
KWE1 091220Z 20006KT 05/04 A3023 RMK A01 T00490038  RH  092%=      5-min Rain = 0
KWE1 091221Z 20006KT 05/04 A3023 RMK A01 T00490038  RH  092%=      5-min Rain = 0
KWE1 091222Z 20006KT 05/04 A3023 RMK A01 T00490038  RH  092%=      5-min Rain = 0
KWE1 091223Z 20007KT 05/04 A3023 RMK A01 T00490038  RH  092%=      5-min Rain = 0
KWE1 091224Z 20007KT 05/04 A3023 RMK A01 T00490038  RH  092%=      5-min Rain = 0
KWE1 091225Z 20006KT 05/04 A3023 RMK A01 T00490038  RH  092%=      5-min Rain = 0
KWE1 091226Z 20005KT 05/04 A3023 RMK A01 T00490038  RH  092%=      5-min Rain = 0
KWE1 091227Z 20006KT 05/04 A3023 RMK A01 T00490038  RH  092%=      5-min Rain = 0
KWE1 091228Z 20006KT 05/04 A3023 RMK A01 T00500038  RH  092%=      5-min Rain = 0
KWE1 091229Z 20006KT 05/04 A3023 RMK A01 T00500039  RH  093%=      5-min Rain = 0
KWE1 091230Z 21006KT 05/04 A3023 RMK A01 T00500039  RH  093%=      5-min Rain = 0
KWE1 091231Z 21006KT 05/04 A3023 RMK A01 T00500039  RH  093%=      5-min Rain = 0
KWE1 091232Z 21006KT 05/04 A3023 RMK A01 T00500039  RH  092%=      5-min Rain = 0
KWE1 091233Z 20006KT 05/04 A3023 RMK A01 T00500039  RH  092%=      5-min Rain = 0
KWE1 091234Z 21006KT 05/04 A3023 RMK A01 T00500038  RH  092%=      5-min Rain = 0
KWE1 091235Z 21006KT 05/04 A3024 RMK A01 T00500038  RH  092%=      5-min Rain = 0
KWE1 091236Z 21006KT 05/04 A3024 RMK A01 T00500038  RH  092%=      5-min Rain = 0
KWE1 091237Z 21006KT 05/04 A3024 RMK A01 T00490038  RH  092%=      5-min Rain = 0
KWE1 091238Z 21005KT 05/04 A3024 RMK A01 T00500038  RH  092%=      5-min Rain = 0
KWE1 091239Z 21006KT 05/04 A3024 RMK A01 T00490038  RH  092%=      5-min Rain = 0
KWE1 091240Z 21006KT 05/04 A3023 RMK A01 T00490037  RH  092%=      5-min Rain = 0
KWE1 091241Z 21007KT 05/04 A3024 RMK A01 T00490037  RH  092%=      5-min Rain = 0
KWE1 091242Z 21007KT 05/04 A3023 RMK A01 T00480037  RH  092%=      5-min Rain = 0
KWE1 091243Z 21007KT 05/04 A3023 RMK A01 T00490037  RH  092%=      5-min Rain = 0
KWE1 091244Z 21006KT 05/04 A3023 RMK A01 T00480037  RH  092%=      5-min Rain = 0
KWE1 091245Z 21007KT 05/04 A3023 RMK A01 T00480037  RH  092%=      5-min Rain = 0
KWE1 091246Z 21007KT 05/04 A3023 RMK A01 T00490037  RH  092%=      5-min Rain = 0
KWE1 091247Z 21006KT 05/04 A3023 RMK A01 T00480037  RH  093%=      5-min Rain = 0
KWE1 091248Z 21006KT 05/04 A3023 RMK A01 T00480037  RH  093%=      5-min Rain = 0
KWE1 091249Z 21006KT 05/04 A3023 RMK A01 T00480037  RH  093%=      5-min Rain = 0
KWE1 091250Z 21007KT 05/04 A3023 RMK A01 T00480037  RH  093%=      5-min Rain = 0
KWE1 091251Z 21007KT 05/04 A3023 RMK A01 T00490038  RH  093%=      5-min Rain = 0
KWE1 091252Z 21006KT 05/04 A3023 RMK A01 T00490038  RH  093%=      5-min Rain = 0
KWE1 091253Z 21006KT 05/04 A3023 RMK A01 T00490038  RH  093%=      5-min Rain = 0
KWE1 091254Z 21007KT 05/04 A3023 RMK A01 T00490038  RH  093%=      5-min Rain = 0
KWE1 091255Z 21007KT 05/04 A3023 RMK A01 T00490038  RH  093%=      5-min Rain = 0
KWE1 091256Z 21006KT 05/04 A3023 RMK A01 T00490038  RH  093%=      5-min Rain = 0
KWE1 091257Z 21006KT 05/04 A3023 RMK A01 T00490038  RH  093%=      5-min Rain = 0
KWE1 091258Z 21006KT 05/04 A3023 RMK A01 T00490038  RH  093%=      5-min Rain = 0
KWE1 091259Z 22007KT 05/04 A3023 RMK A01 T00490038  RH  093%=      5-min Rain = 0
KWE1 091300Z 22006KT 05/04 A3023 RMK A01 T00490038  RH  093%=      5-min Rain = 0
KWE1 091301Z 21006KT 05/04 A3023 RMK A01 T00490038  RH  093%=      5-min Rain = 0
KWE1 091302Z 21006KT 05/04 A3023 RMK A01 T00480037  RH  093%=      5-min Rain = 0
KWE1 091303Z 21006KT 05/04 A3024 RMK A01 T00480037  RH  093%=      5-min Rain = 0
KWE1 091304Z 21007KT 05/04 A3023 RMK A01 T00480037  RH  093%=      5-min Rain = 0
KWE1 091305Z 21007KT 05/04 A3023 RMK A01 T00480037  RH  093%=      5-min Rain = 0
KWE1 091306Z 21006KT 05/04 A3023 RMK A01 T00480037  RH  093%=      5-min Rain = 0
KWE1 091307Z 21007KT 05/04 A3023 RMK A01 T00480038  RH  093%=      5-min Rain = 0
KWE1 091308Z 21007KT 05/04 A3023 RMK A01 T00490039  RH  093%=      5-min Rain = 0
KWE1 091309Z 21007KT 05/04 A3023 RMK A01 T00490039  RH  093%=      5-min Rain = 0
KWE1 091310Z 21007KT 05/04 A3023 RMK A01 T00500039  RH  093%=      5-min Rain = 0
KWE1 091311Z 21007KT 05/04 A3023 RMK A01 T00500040  RH  093%=      5-min Rain = 0
KWE1 091312Z 21007KT 05/04 A3023 RMK A01 T00500040  RH  093%=      5-min Rain = 0
KWE1 091313Z 21007KT 05/04 A3023 RMK A01 T00500040  RH  093%=      5-min Rain = 0
KWE1 091314Z 21007KT 05/04 A3023 RMK A01 T00500040  RH  093%=      5-min Rain = 0
KWE1 091315Z 21007KT 05/04 A3023 RMK A01 T00500039  RH  093%=      5-min Rain = 0
KWE1 091316Z 21007KT 05/04 A3024 RMK A01 T00500039  RH  093%=      5-min Rain = 0
KWE1 091317Z 21007KT 05/04 A3024 RMK A01 T00500040  RH  093%=      5-min Rain = 0
KWE1 091318Z 21006KT 05/04 A3024 RMK A01 T00500039  RH  093%=      5-min Rain = 0
KWE1 091319Z 21007KT 05/04 A3024 RMK A01 T00500039  RH  093%=      5-min Rain = 0
KWE1 091320Z 21007KT 05/04 A3024 RMK A01 T00500039  RH  093%=      5-min Rain = 0
KWE1 091321Z 21006KT 05/04 A3024 RMK A01 T00500039  RH  093%=      5-min Rain = 0
KWE1 091322Z 21007KT 05/04 A3024 RMK A01 T00510040  RH  093%=      5-min Rain = 0
KWE1 091323Z 21006KT 05/04 A3024 RMK A01 T00510040  RH  093%=      5-min Rain = 0
KWE1 091324Z 21006KT 05/04 A3024 RMK A01 T00510040  RH  093%=      5-min Rain = 0
KWE1 091325Z 21006KT 05/04 A3024 RMK A01 T00510040  RH  093%=      5-min Rain = 0
KWE1 091326Z 21006KT 05/04 A3024 RMK A01 T00510040  RH  093%=      5-min Rain = 0
KWE1 091327Z 21006KT 05/04 A3024 RMK A01 T00510040  RH  093%=      5-min Rain = 0
KWE1 091328Z 21006KT 05/04 A3024 RMK A01 T00520040  RH  092%=      5-min Rain = 0
KWE1 091329Z 21007KT 05/04 A3024 RMK A01 T00520041  RH  092%=      5-min Rain = 0
KWE1 091330Z 21006KT 05/04 A3024 RMK A01 T00520041  RH  092%=      5-min Rain = 0
KWE1 091331Z 21007KT 05/04 A3024 RMK A01 T00530041  RH  092%=      5-min Rain = 0
KWE1 091332Z 21006KT 05/04 A3024 RMK A01 T00530042  RH  092%=      5-min Rain = 0
KWE1 091333Z 21006KT 05/04 A3024 RMK A01 T00540042  RH  092%=      5-min Rain = 0
KWE1 091334Z 21006KT 05/04 A3024 RMK A01 T00540042  RH  092%=      5-min Rain = 0
KWE1 091335Z 21006KT 05/04 A3024 RMK A01 T00540042  RH  092%=      5-min Rain = 0
KWE1 091336Z 21006KT 06/04 A3024 RMK A01 T00550043  RH  092%=      5-min Rain = 0
KWE1 091337Z 21006KT 06/04 A3024 RMK A01 T00550043  RH  092%=      5-min Rain = 0
KWE1 091338Z 21004KT 06/04 A3024 RMK A01 T00550043  RH  092%=      5-min Rain = 0
KWE1 091339Z 21005KT 06/04 A3024 RMK A01 T00560043  RH  092%=      5-min Rain = 0
KWE1 091340Z 21005KT 06/04 A3024 RMK A01 T00560043  RH  092%=      5-min Rain = 0
KWE1 091341Z 21005KT 06/04 A3024 RMK A01 T00560043  RH  091%=      5-min Rain = 0
KWE1 091342Z 21006KT 06/04 A3024 RMK A01 T00560043  RH  091%=      5-min Rain = 0
KWE1 091343Z 21005KT 06/04 A3024 RMK A01 T00570044  RH  091%=      5-min Rain = 0
KWE1 091344Z 21006KT 06/04 A3024 RMK A01 T00570044  RH  091%=      5-min Rain = 0
KWE1 091345Z 21005KT 06/04 A3024 RMK A01 T00570044  RH  091%=      5-min Rain = 0
KWE1 091346Z 21005KT 06/04 A3024 RMK A01 T00580044  RH  091%=      5-min Rain = 0
KWE1 091347Z 21006KT 06/04 A3024 RMK A01 T00580044  RH  091%=      5-min Rain = 0
KWE1 091348Z 21006KT 06/04 A3024 RMK A01 T00580044  RH  091%=      5-min Rain = 0
KWE1 091349Z 21006KT 06/05 A3024 RMK A01 T00590045  RH  091%=      5-min Rain = 0
KWE1 091350Z 21005KT 06/05 A3024 RMK A01 T00590045  RH  091%=      5-min Rain = 0
KWE1 091351Z 20005KT 06/05 A3025 RMK A01 T00590045  RH  091%=      5-min Rain = 0
KWE1 091352Z 21005KT 06/05 A3025 RMK A01 T00600045  RH  091%=      5-min Rain = 0
KWE1 091353Z 21005KT 06/05 A3025 RMK A01 T00600046  RH  090%=      5-min Rain = 0
KWE1 091354Z 21004KT 06/05 A3025 RMK A01 T00600046  RH  090%=      5-min Rain = 0
KWE1 091355Z 21005KT 06/05 A3025 RMK A01 T00610047  RH  090%=      5-min Rain = 0
KWE1 091356Z 21005KT 06/05 A3025 RMK A01 T00610046  RH  090%=      5-min Rain = 0
KWE1 091357Z 21005KT 06/05 A3025 RMK A01 T00620047  RH  090%=      5-min Rain = 0
KWE1 091358Z 21006KT 06/05 A3025 RMK A01 T00620046  RH  090%=      5-min Rain = 0
KWE1 091359Z 21005KT 06/05 A3025 RMK A01 T00620047  RH  090%=      5-min Rain = 0
KWE1 091400Z 21006KT 06/05 A3025 RMK A01 T00630047  RH  090%=      5-min Rain = 0
KWE1 091401Z 21007KT 06/05 A3025 RMK A01 T00630047  RH  090%=      5-min Rain = 0
KWE1 091402Z 21007KT 06/05 A3024 RMK A01 T00630047  RH  089%=      5-min Rain = 0
KWE1 091403Z 21006KT 06/05 A3024 RMK A01 T00630047  RH  089%=      5-min Rain = 0
KWE1 091404Z 20007KT 06/05 A3024 RMK A01 T00640047  RH  089%=      5-min Rain = 0
KWE1 091405Z 20007KT 07/05 A3024 RMK A01 T00650048  RH  089%=      5-min Rain = 0
KWE1 091406Z 21006KT 07/05 A3024 RMK A01 T00650048  RH  089%=      5-min Rain = 0
KWE1 091407Z 21007KT 07/05 A3024 RMK A01 T00650049  RH  089%=      5-min Rain = 0
KWE1 091408Z 21006KT 07/05 A3024 RMK A01 T00660049  RH  089%=      5-min Rain = 0
KWE1 091409Z 21006KT 07/05 A3024 RMK A01 T00660049  RH  089%=      5-min Rain = 0
KWE1 091410Z 21007KT 07/05 A3025 RMK A01 T00670050  RH  089%=      5-min Rain = 0
KWE1 091411Z 21006KT 07/05 A3025 RMK A01 T00680050  RH  089%=      5-min Rain = 0
KWE1 091412Z 21007KT 07/05 A3025 RMK A01 T00680050  RH  089%=      5-min Rain = 0
KWE1 091413Z 21008KT 07/05 A3025 RMK A01 T00680050  RH  088%=      5-min Rain = 0
KWE1 091414Z 21007KT 07/05 A3025 RMK A01 T00680050  RH  088%=      5-min Rain = 0
KWE1 091415Z 21008KT 07/05 A3025 RMK A01 T00680050  RH  088%=      5-min Rain = 0
KWE1 091416Z 21007KT 07/05 A3025 RMK A01 T00690050  RH  088%=      5-min Rain = 0
KWE1 091417Z 21007KT 07/05 A3025 RMK A01 T00690050  RH  088%=      5-min Rain = 0
KWE1 091418Z 21007KT 07/05 A3025 RMK A01 T00690050  RH  088%=      5-min Rain = 0
KWE1 091419Z 21008KT 07/05 A3025 RMK A01 T00700051  RH  088%=      5-min Rain = 0
KWE1 091420Z 21006KT 07/05 A3025 RMK A01 T00700052  RH  088%=      5-min Rain = 0
KWE1 091421Z 21006KT 07/05 A3025 RMK A01 T00710052  RH  088%=      5-min Rain = 0
KWE1 091422Z 21008KT 07/05 A3025 RMK A01 T00720053  RH  088%=      5-min Rain = 0
KWE1 091423Z 21008KT 07/05 A3025 RMK A01 T00720052  RH  088%=      5-min Rain = 0
KWE1 091424Z 21008KT 07/05 A3025 RMK A01 T00720052  RH  087%=      5-min Rain = 0
KWE1 091425Z 21008KT 07/05 A3025 RMK A01 T00720053  RH  088%=      5-min Rain = 0
KWE1 091426Z 21009KT 07/05 A3025 RMK A01 T00730053  RH  088%=      5-min Rain = 0
KWE1 091427Z 21009KT 07/05 A3025 RMK A01 T00730054  RH  087%=      5-min Rain = 0
KWE1 091428Z 21008KT 07/05 A3025 RMK A01 T00740054  RH  087%=      5-min Rain = 0
KWE1 091429Z 21009KT 08/06 A3025 RMK A01 T00750055  RH  088%=      5-min Rain = 0
KWE1 091430Z 21008KT 08/06 A3025 RMK A01 T00750056  RH  087%=      5-min Rain = 0
KWE1 091431Z 22008KT 08/06 A3025 RMK A01 T00760057  RH  087%=      5-min Rain = 0
KWE1 091432Z 22008KT 08/06 A3025 RMK A01 T00770058  RH  087%=      5-min Rain = 0
KWE1 091433Z 21008KT 08/06 A3025 RMK A01 T00780058  RH  087%=      5-min Rain = 0
KWE1 091434Z 22007KT 08/06 A3025 RMK A01 T00780058  RH  087%=      5-min Rain = 0
KWE1 091435Z 21007KT 08/06 A3025 RMK A01 T00790060  RH  087%=      5-min Rain = 0
KWE1 091436Z 21007KT 08/06 A3025 RMK A01 T00800060  RH  087%=      5-min Rain = 0
KWE1 091437Z 22008KT 08/06 A3025 RMK A01 T00810061  RH  087%=      5-min Rain = 0
KWE1 091438Z 21008KT 08/06 A3025 RMK A01 T00820061  RH  087%=      5-min Rain = 0
KWE1 091439Z 22008KT 08/06 A3025 RMK A01 T00820061  RH  086%=      5-min Rain = 0
KWE1 091440Z 22008KT 08/06 A3025 RMK A01 T00830061  RH  086%=      5-min Rain = 0
KWE1 091441Z 22007KT 08/06 A3025 RMK A01 T00840063  RH  086%=      5-min Rain = 0
KWE1 091442Z 22008KT 09/06 A3025 RMK A01 T00860064  RH  086%=      5-min Rain = 0
KWE1 091443Z 23009KT 09/07 A3025 RMK A01 T00870065  RH  086%=      5-min Rain = 0
KWE1 091444Z 22009KT 09/06 A3025 RMK A01 T00880064  RH  085%=      5-min Rain = 0
KWE1 091445Z 22009KT 09/06 A3025 RMK A01 T00880064  RH  085%=      5-min Rain = 0
KWE1 091446Z 23009KT 09/06 A3025 RMK A01 T00890064  RH  084%=      5-min Rain = 0
KWE1 091447Z 22008KT 09/06 A3025 RMK A01 T00890063  RH  084%=      5-min Rain = 0
KWE1 091448Z 23007KT 09/06 A3025 RMK A01 T00900064  RH  084%=      5-min Rain = 0
KWE1 091449Z 23007KT 09/07 A3025 RMK A01 T00910065  RH  084%=      5-min Rain = 0
KWE1 091450Z 23007KT 09/07 A3025 RMK A01 T00920066  RH  084%=      5-min Rain = 0
KWE1 091451Z 24008KT 09/07 A3025 RMK A01 T00930067  RH  084%=      5-min Rain = 0
KWE1 091452Z 24008KT 09/07 A3025 RMK A01 T00930065  RH  083%=      5-min Rain = 0
KWE1 091453Z 23008KT 09/07 A3025 RMK A01 T00930065  RH  083%=      5-min Rain = 0
KWE1 091454Z 24008KT 09/07 A3025 RMK A01 T00940065  RH  082%=      5-min Rain = 0
KWE1 091455Z 24008KT 10/07 A3025 RMK A01 T00950067  RH  083%=      5-min Rain = 0
KWE1 091456Z 24008KT 10/07 A3025 RMK A01 T00960066  RH  082%=      5-min Rain = 0
KWE1 091457Z 24007KT 10/07 A3025 RMK A01 T00960065  RH  081%=      5-min Rain = 0
KWE1 091458Z 24008KT 10/07 A3025 RMK A01 T00960065  RH  081%=      5-min Rain = 0
KWE1 091459Z 24008KT 10/07 A3025 RMK A01 T00970066  RH  082%=      5-min Rain = 0
KWE1 091500Z 24008KT 10/07 A3025 RMK A01 T00970066  RH  081%=      5-min Rain = 0
KWE1 091501Z 24008KT 10/07 A3025 RMK A01 T00970066  RH  081%=      5-min Rain = 0
KWE1 091502Z 24007KT 10/07 A3025 RMK A01 T00980067  RH  081%=      5-min Rain = 0
KWE1 091503Z 23007KT 10/07 A3025 RMK A01 T00990068  RH  081%=      5-min Rain = 0
KWE1 091504Z 23006KT 10/07 A3025 RMK A01 T01000070  RH  082%=      5-min Rain = 0
KWE1 091505Z 24006KT 10/07 A3025 RMK A01 T01020073  RH  082%=      5-min Rain = 0
KWE1 091506Z 22007KT 10/07 A3025 RMK A01 T01040074  RH  082%=      5-min Rain = 0
KWE1 091507Z 23008KT 11/07 A3025 RMK A01 T01050073  RH  081%=      5-min Rain = 0
KWE1 091508Z 23008KT 11/07 A3025 RMK A01 T01050072  RH  080%=      5-min Rain = 0
KWE1 091509Z 23007KT 11/07 A3025 RMK A01 T01050072  RH  080%=      5-min Rain = 0
KWE1 091510Z 23008KT 11/07 A3025 RMK A01 T01060073  RH  080%=      5-min Rain = 0
KWE1 091511Z 23009KT 11/07 A3025 RMK A01 T01070074  RH  080%=      5-min Rain = 0
KWE1 091512Z 23006KT 11/07 A3025 RMK A01 T01070073  RH  079%=      5-min Rain = 0
KWE1 091513Z 24007KT 11/08 A3025 RMK A01 T01090078  RH  081%=      5-min Rain = 0
KWE1 091514Z 23005KT 11/08 A3025 RMK A01 T01100076  RH  079%=      5-min Rain = 0
KWE1 091515Z 23008KT 11/08 A3025 RMK A01 T01120077  RH  079%=      5-min Rain = 0
KWE1 091516Z 24007KT 11/08 A3025 RMK A01 T01120076  RH  078%=      5-min Rain = 0
KWE1 091517Z 24007KT 11/08 A3025 RMK A01 T01140078  RH  079%=      5-min Rain = 0
KWE1 091518Z 24007KT 11/08 A3025 RMK A01 T01140075  RH  077%=      5-min Rain = 0
KWE1 091519Z 24007KT 11/08 A3025 RMK A01 T01140076  RH  077%=      5-min Rain = 0
KWE1 091520Z 25009KT 11/08 A3025 RMK A01 T01140076  RH  077%=      5-min Rain = 0
KWE1 091521Z 23006KT 12/08 A3025 RMK A01 T01150077  RH  077%=      5-min Rain = 0
KWE1 091522Z 23009KT 12/08 A3025 RMK A01 T01170079  RH  078%=      5-min Rain = 0
KWE1 091523Z 24010KT 12/08 A3025 RMK A01 T01180076  RH  076%=      5-min Rain = 0
KWE1 091524Z 24010KT 12/08 A3024 RMK A01 T01180075  RH  075%=      5-min Rain = 0
KWE1 091525Z 23010KT 12/08 A3024 RMK A01 T01170075  RH  075%=      5-min Rain = 0
KWE1 091526Z 24009KT 12/08 A3024 RMK A01 T01170076  RH  076%=      5-min Rain = 0
KWE1 091527Z 24008KT 12/08 A3024 RMK A01 T01170076  RH  076%=      5-min Rain = 0
KWE1 091528Z 25007KT 12/08 A3024 RMK A01 T01180078  RH  076%=      5-min Rain = 0
KWE1 091529Z 24008KT 12/08 A3024 RMK A01 T01200079  RH  076%=      5-min Rain = 0
KWE1 091530Z 23009KT 12/08 A3024 RMK A01 T01210079  RH  075%=      5-min Rain = 0
KWE1 091531Z 23011KT 12/08 A3024 RMK A01 T01220079  RH  075%=      5-min Rain = 0
KWE1 091532Z 24011KT 12/08 A3024 RMK A01 T01220077  RH  074%=      5-min Rain = 0
KWE1 091533Z 24010KT 12/08 A3024 RMK A01 T01210078  RH  075%=      5-min Rain = 0
KWE1 091534Z 24009KT 12/08 A3024 RMK A01 T01220081  RH  076%=      5-min Rain = 0
KWE1 091535Z 24009KT 13/08 A3024 RMK A01 T01250082  RH  075%=      5-min Rain = 0
KWE1 091536Z 24009KT 13/08 A3024 RMK A01 T01250081  RH  074%=      5-min Rain = 0
KWE1 091537Z 24010KT 13/08 A3024 RMK A01 T01260083  RH  075%=      5-min Rain = 0
KWE1 091538Z 23009KT 13/08 A3024 RMK A01 T01270081  RH  074%=      5-min Rain = 0
KWE1 091539Z 23010KT 13/08 A3024 RMK A01 T01270083  RH  075%=      5-min Rain = 0
KWE1 091540Z 24011KT 13/08 A3024 RMK A01 T01280082  RH  074%=      5-min Rain = 0
KWE1 091541Z 24010KT 13/08 A3024 RMK A01 T01280082  RH  074%=      5-min Rain = 0
KWE1 091542Z 24010KT 13/08 A3024 RMK A01 T01290083  RH  074%=      5-min Rain = 0
KWE1 091543Z 23010KT 13/09 A3024 RMK A01 T01300085  RH  074%=      5-min Rain = 0
KWE1 091544Z 24012KT 13/08 A3024 RMK A01 T01310083  RH  073%=      5-min Rain = 0
KWE1 091545Z 23012KT 13/08 A3024 RMK A01 T01300082  RH  073%=      5-min Rain = 0
KWE1 091546Z 23010KT 13/08 A3024 RMK A01 T01310084  RH  073%=      5-min Rain = 0
KWE1 091547Z 24008KT 13/09 A3024 RMK A01 T01320086  RH  073%=      5-min Rain = 0
KWE1 091548Z 24010KT 13/09 A3025 RMK A01 T01340087  RH  073%=      5-min Rain = 0
KWE1 091549Z 24008KT 14/08 A3025 RMK A01 T01350084  RH  072%=      5-min Rain = 0
KWE1 091550Z 23008KT 14/09 A3025 RMK A01 T01350087  RH  073%=      5-min Rain = 0
KWE1 091551Z 23007KT 14/09 A3025 RMK A01 T01350087  RH  073%=      5-min Rain = 0
KWE1 091552Z 22008KT 14/09 A3025 RMK A01 T01360087  RH  072%=      5-min Rain = 0
KWE1 091553Z 24006KT 14/09 A3025 RMK A01 T01370088  RH  072%=      5-min Rain = 0
KWE1 091554Z 25008KT 14/09 A3025 RMK A01 T01390090  RH  072%=      5-min Rain = 0
KWE1 091555Z 24007KT 14/09 A3025 RMK A01 T01390087  RH  071%=      5-min Rain = 0
KWE1 091556Z 24007KT 14/09 A3025 RMK A01 T01400088  RH  071%=      5-min Rain = 0
KWE1 091557Z 23007KT 14/09 A3025 RMK A01 T01400088  RH  071%=      5-min Rain = 0
KWE1 091558Z 23007KT 14/09 A3025 RMK A01 T01410089  RH  071%=      5-min Rain = 0
KWE1 091559Z 24008KT 14/09 A3025 RMK A01 T01420089  RH  070%=      5-min Rain = 0
KWE1 091600Z 23008KT 14/09 A3025 RMK A01 T01410086  RH  069%=      5-min Rain = 0
KWE1 091601Z 24008KT 14/09 A3025 RMK A01 T01410087  RH  070%=      5-min Rain = 0
KWE1 091602Z 25007KT 14/09 A3025 RMK A01 T01410087  RH  070%=      5-min Rain = 0
KWE1 091603Z 24009KT 14/09 A3025 RMK A01 T01420089  RH  070%=      5-min Rain = 0
KWE1 091604Z 24009KT 14/09 A3025 RMK A01 T01420085  RH  069%=      5-min Rain = 0
KWE1 091605Z 26009KT 14/09 A3025 RMK A01 T01420085  RH  068%=      5-min Rain = 0
KWE1 091606Z 26009KT 14/09 A3025 RMK A01 T01410085  RH  069%=      5-min Rain = 0
KWE1 091607Z 26008KT 14/09 A3025 RMK A01 T01420086  RH  069%=      5-min Rain = 0
KWE1 091608Z 24008KT 14/09 A3025 RMK A01 T01430087  RH  069%=      5-min Rain = 0
KWE1 091609Z 25009KT 14/09 A3025 RMK A01 T01430086  RH  068%=      5-min Rain = 0
KWE1 091610Z 24007KT 14/09 A3025 RMK A01 T01430087  RH  069%=      5-min Rain = 0
KWE1 091611Z 25007KT 14/09 A3025 RMK A01 T01440088  RH  069%=      5-min Rain = 0
KWE1 091612Z 24008KT 15/09 A3025 RMK A01 T01460091  RH  069%=      5-min Rain = 0
KWE1 091613Z 25008KT 15/09 A3025 RMK A01 T01470089  RH  068%=      5-min Rain = 0
KWE1 091614Z 25008KT 15/09 A3025 RMK A01 T01470088  RH  068%=      5-min Rain = 0
KWE1 091615Z 25007KT 15/09 A3025 RMK A01 T01470089  RH  068%=      5-min Rain = 0
KWE1 091616Z 24008KT 15/09 A3025 RMK A01 T01490091  RH  068%=      5-min Rain = 0
KWE1 091617Z 24008KT 15/09 A3025 RMK A01 T01500093  RH  068%=      5-min Rain = 0
KWE1 091618Z 23010KT 15/09 A3025 RMK A01 T01510091  RH  067%=      5-min Rain = 0
KWE1 091619Z 24010KT 15/09 A3025 RMK A01 T01500088  RH  066%=      5-min Rain = 0
KWE1 091620Z 25010KT 15/09 A3025 RMK A01 T01490087  RH  067%=      5-min Rain = 0
KWE1 091621Z 25008KT 15/09 A3024 RMK A01 T01480087  RH  067%=      5-min Rain = 0
KWE1 091622Z 24007KT 15/09 A3024 RMK A01 T01480090  RH  068%=      5-min Rain = 0
KWE1 091623Z 23010KT 15/09 A3024 RMK A01 T01510093  RH  068%=      5-min Rain = 0
KWE1 091624Z 25008KT 15/09 A3024 RMK A01 T01530092  RH  067%=      5-min Rain = 0
KWE1 091625Z 24010KT 15/09 A3024 RMK A01 T01540093  RH  067%=      5-min Rain = 0
KWE1 091626Z 24012KT 15/09 A3024 RMK A01 T01540090  RH  066%=      5-min Rain = 0
KWE1 091627Z 24010KT 15/09 A3024 RMK A01 T01520087  RH  065%=      5-min Rain = 0
KWE1 091628Z 24011KT 15/09 A3024 RMK A01 T01520090  RH  066%=      5-min Rain = 0
KWE1 091629Z 25011KT 15/09 A3024 RMK A01 T01530091  RH  066%=      5-min Rain = 0
KWE1 091630Z 23010KT 15/09 A3024 RMK A01 T01540090  RH  066%=      5-min Rain = 0
KWE1 091631Z 24008KT 15/09 A3024 RMK A01 T01540091  RH  066%=      5-min Rain = 0
KWE1 091632Z 25009KT 16/09 A3024 RMK A01 T01560093  RH  066%=      5-min Rain = 0
KWE1 091633Z 25008KT 16/09 A3024 RMK A01 T01570092  RH  065%=      5-min Rain = 0
KWE1 091634Z 25008KT 16/09 A3024 RMK A01 T01580093  RH  065%=      5-min Rain = 0
KWE1 091635Z 25009KT 16/09 A3024 RMK A01 T01580092  RH  065%=      5-min Rain = 0
KWE1 091636Z 25009KT 16/09 A3024 RMK A01 T01580092  RH  065%=      5-min Rain = 0
KWE1 091637Z 25009KT 16/09 A3024 RMK A01 T01590093  RH  065%=      5-min Rain = 0
KWE1 091638Z 25008KT 16/09 A3024 RMK A01 T01600092  RH  064%=      5-min Rain = 0
KWE1 091639Z 25008KT 16/09 A3024 RMK A01 T01600092  RH  064%=      5-min Rain = 0
KWE1 091640Z 26009KT 16/10 A3024 RMK A01 T01620095  RH  065%=      5-min Rain = 0
KWE1 091641Z 25010KT 16/09 A3024 RMK A01 T01630092  RH  063%=      5-min Rain = 0
KWE1 091642Z 25008KT 16/09 A3024 RMK A01 T01620093  RH  064%=      5-min Rain = 0
KWE1 091643Z 24009KT 16/10 A3024 RMK A01 T01630095  RH  064%=      5-min Rain = 0
KWE1 091644Z 25010KT 16/09 A3024 RMK A01 T01630094  RH  064%=      5-min Rain = 0
KWE1 091645Z 24011KT 16/09 A3024 RMK A01 T01630094  RH  063%=      5-min Rain = 0
KWE1 091646Z 25010KT 16/10 A3024 RMK A01 T01630095  RH  064%=      5-min Rain = 0
KWE1 091647Z 24008KT 16/10 A3024 RMK A01 T01630095  RH  064%=      5-min Rain = 0
KWE1 091648Z 23008KT 16/10 A3024 RMK A01 T01640097  RH  064%=      5-min Rain = 0
KWE1 091649Z 23010KT 17/10 A3024 RMK A01 T01660098  RH  064%=      5-min Rain = 0
KWE1 091650Z 23009KT 17/10 A3024 RMK A01 T01670096  RH  063%=      5-min Rain = 0
KWE1 091651Z 23011KT 17/10 A3024 RMK A01 T01680096  RH  063%=      5-min Rain = 0
KWE1 091652Z 23010KT 17/09 A3024 RMK A01 T01670094  RH  062%=      5-min Rain = 0
KWE1 091653Z 23012KT 17/10 A3024 RMK A01 T01670095  RH  063%=      5-min Rain = 0
KWE1 091654Z 24010KT 17/09 A3024 RMK A01 T01660094  RH  063%=      5-min Rain = 0
KWE1 091655Z 23010KT 17/10 A3024 RMK A01 T01650095  RH  063%=      5-min Rain = 0
KWE1 091656Z 23010KT 17/10 A3024 RMK A01 T01660097  RH  064%=      5-min Rain = 0
KWE1 091657Z 23009KT 17/10 A3024 RMK A01 T01680098  RH  063%=      5-min Rain = 0
KWE1 091658Z 23010KT 17/10 A3023 RMK A01 T01690096  RH  062%=      5-min Rain = 0
KWE1 091659Z 22010KT 17/10 A3023 RMK A01 T01690097  RH  062%=      5-min Rain = 0
KWE1 091700Z 23012KT 17/10 A3023 RMK A01 T01700098  RH  062%=      5-min Rain = 0
KWE1 091701Z 24010KT 17/10 A3023 RMK A01 T01700096  RH  062%=      5-min Rain = 0
KWE1 091702Z 23010KT 17/10 A3023 RMK A01 T01690098  RH  063%=      5-min Rain = 0
KWE1 091703Z 23009KT 17/10 A3023 RMK A01 T01710100  RH  063%=      5-min Rain = 0
KWE1 091704Z 22008KT 17/10 A3023 RMK A01 T01730101  RH  063%=      5-min Rain = 0
KWE1 091705Z 23009KT 18/10 A3023 RMK A01 T01750101  RH  062%=      5-min Rain = 0
KWE1 091706Z 23010KT 18/10 A3023 RMK A01 T01760099  RH  061%=      5-min Rain = 0
KWE1 091707Z 22011KT 18/10 A3023 RMK A01 T01750100  RH  061%=      5-min Rain = 0
KWE1 091708Z 23010KT 18/10 A3023 RMK A01 T01750099  RH  061%=      5-min Rain = 0
KWE1 091709Z 23008KT 18/10 A3023 RMK A01 T01760100  RH  061%=      5-min Rain = 0
KWE1 091710Z 23009KT 18/10 A3023 RMK A01 T01770102  RH  062%=      5-min Rain = 0
KWE1 091711Z 25009KT 18/10 A3023 RMK A01 T01780102  RH  061%=      5-min Rain = 0
KWE1 091712Z 25008KT 18/10 A3023 RMK A01 T01780099  RH  060%=      5-min Rain = 0
KWE1 091713Z 24008KT 18/10 A3023 RMK A01 T01770100  RH  061%=      5-min Rain = 0
KWE1 091714Z 24006KT 18/10 A3023 RMK A01 T01780103  RH  062%=      5-min Rain = 0
KWE1 091715Z 23009KT 18/10 A3023 RMK A01 T01790102  RH  060%=      5-min Rain = 0
KWE1 091716Z 24010KT 18/10 A3023 RMK A01 T01800102  RH  060%=      5-min Rain = 0
KWE1 091717Z 24010KT 18/10 A3023 RMK A01 T01810101  RH  060%=      5-min Rain = 0
KWE1 091718Z 25008KT 18/10 A3023 RMK A01 T01790100  RH  060%=      5-min Rain = 0
KWE1 091719Z 23010KT 18/10 A3023 RMK A01 T01780101  RH  061%=      5-min Rain = 0
KWE1 091720Z 23010KT 18/10 A3023 RMK A01 T01780102  RH  061%=      5-min Rain = 0
KWE1 091721Z 23008KT 18/10 A3023 RMK A01 T01780099  RH  060%=      5-min Rain = 0
KWE1 091722Z 22008KT 18/10 A3023 RMK A01 T01770100  RH  061%=      5-min Rain = 0
KWE1 091723Z 22007KT 18/10 A3023 RMK A01 T01760102  RH  062%=      5-min Rain = 0
KWE1 091724Z 22007KT 18/11 A3023 RMK A01 T01780106  RH  063%=      5-min Rain = 0
KWE1 091725Z 22008KT 18/11 A3023 RMK A01 T01790106  RH  062%=      5-min Rain = 0
KWE1 091726Z 24007KT 18/11 A3023 RMK A01 T01800105  RH  061%=      5-min Rain = 0
KWE1 091727Z 23009KT 18/10 A3023 RMK A01 T01810102  RH  060%=      5-min Rain = 0
KWE1 091728Z 22007KT 18/10 A3023 RMK A01 T01800102  RH  061%=      5-min Rain = 0
KWE1 091729Z 21008KT 18/11 A3023 RMK A01 T01800106  RH  062%=      5-min Rain = 0
KWE1 091730Z 23009KT 18/11 A3022 RMK A01 T01810106  RH  062%=      5-min Rain = 0
KWE1 091731Z 23009KT 18/11 A3022 RMK A01 T01810107  RH  062%=      5-min Rain = 0
KWE1 091732Z 23008KT 18/11 A3023 RMK A01 T01820105  RH  061%=      5-min Rain = 0
KWE1 091733Z 22007KT 18/10 A3022 RMK A01 T01820103  RH  060%=      5-min Rain = 0
KWE1 091734Z 22009KT 18/10 A3022 RMK A01 T01830104  RH  060%=      5-min Rain = 0
KWE1 091735Z 23010KT 18/10 A3022 RMK A01 T01820102  RH  059%=      5-min Rain = 0
KWE1 091736Z 23009KT 18/10 A3022 RMK A01 T01820101  RH  059%=      5-min Rain = 0
KWE1 091737Z 23009KT 18/10 A3022 RMK A01 T01820103  RH  060%=      5-min Rain = 0
KWE1 091738Z 25008KT 18/11 A3022 RMK A01 T01840105  RH  060%=      5-min Rain = 0
KWE1 091739Z 25008KT 19/10 A3022 RMK A01 T01850103  RH  059%=      5-min Rain = 0
KWE1 091740Z 25005KT 19/10 A3022 RMK A01 T01850104  RH  059%=      5-min Rain = 0
KWE1 091741Z 24009KT 19/11 A3022 RMK A01 T01860105  RH  059%=      5-min Rain = 0
KWE1 091742Z 25009KT 19/10 A3022 RMK A01 T01860104  RH  059%=      5-min Rain = 0
KWE1 091743Z 25008KT 19/10 A3022 RMK A01 T01850104  RH  059%=      5-min Rain = 0
KWE1 091744Z 25010KT 19/10 A3022 RMK A01 T01850104  RH  059%=      5-min Rain = 0
KWE1 091745Z 26007KT 19/10 A3022 RMK A01 T01850104  RH  059%=      5-min Rain = 0
KWE1 091746Z 26007KT 19/11 A3022 RMK A01 T01860105  RH  059%=      5-min Rain = 0
KWE1 091747Z 24007KT 19/11 A3021 RMK A01 T01880107  RH  059%=      5-min Rain = 0
KWE1 091748Z 22008KT 19/11 A3021 RMK A01 T01890108  RH  059%=      5-min Rain = 0
KWE1 091749Z 22009KT 19/11 A3021 RMK A01 T01900109  RH  059%=      5-min Rain = 0
KWE1 091750Z 23008KT 19/11 A3021 RMK A01 T01900105  RH  058%=      5-min Rain = 0
KWE1 091751Z 22009KT 19/11 A3021 RMK A01 T01880106  RH  059%=      5-min Rain = 0
KWE1 091752Z 23009KT 19/11 A3021 RMK A01 T01880107  RH  059%=      5-min Rain = 0
KWE1 091753Z 22008KT 19/11 A3021 RMK A01 T01880108  RH  059%=      5-min Rain = 0
KWE1 091754Z 22009KT 19/11 A3021 RMK A01 T01900109  RH  059%=      5-min Rain = 0
KWE1 091755Z 23010KT 19/11 A3021 RMK A01 T01910107  RH  058%=      5-min Rain = 0
KWE1 091756Z 25009KT 19/11 A3021 RMK A01 T01900106  RH  058%=      5-min Rain = 0
KWE1 091757Z 25010KT 19/11 A3021 RMK A01 T01900106  RH  058%=      5-min Rain = 0
KWE1 091758Z 24008KT 19/11 A3021 RMK A01 T01900105  RH  058%=      5-min Rain = 0
KWE1 091759Z 22007KT 19/11 A3021 RMK A01 T01900108  RH  059%=      5-min Rain = 0
KWE1 091800Z 23008KT 19/11 A3021 RMK A01 T01940112  RH  059%=      5-min Rain = 0
KWE1 091801Z 23008KT 20/11 A302 RMK A01 T01950109  RH  058%=      5-min Rain = 0
KWE1 091802Z 23010KT 20/11 A302 RMK A01 T01950109  RH  057%=      5-min Rain = 0
KWE1 091803Z 24010KT 19/11 A302 RMK A01 T01940108  RH  057%=      5-min Rain = 0
KWE1 091804Z 24010KT 19/11 A302 RMK A01 T01940105  RH  056%=      5-min Rain = 0
KWE1 091805Z 23008KT 19/11 A302 RMK A01 T01920107  RH  058%=      5-min Rain = 0
KWE1 091806Z 23009KT 19/11 A302 RMK A01 T01930109  RH  058%=      5-min Rain = 0
KWE1 091807Z 23011KT 19/11 A302 RMK A01 T01940108  RH  057%=      5-min Rain = 0
KWE1 091808Z 22012KT 20/11 A302 RMK A01 T01950107  RH  057%=      5-min Rain = 0
KWE1 091809Z 23010KT 19/11 A302 RMK A01 T01940107  RH  057%=      5-min Rain = 0
KWE1 091810Z 23011KT 19/11 A302 RMK A01 T01940106  RH  057%=      5-min Rain = 0
KWE1 091811Z 22011KT 20/11 A3019 RMK A01 T01950107  RH  057%=      5-min Rain = 0
KWE1 091812Z 23011KT 20/11 A3019 RMK A01 T01950109  RH  058%=      5-min Rain = 0
KWE1 091813Z 23012KT 20/11 A3019 RMK A01 T01960112  RH  058%=      5-min Rain = 0
KWE1 091814Z 23011KT 20/11 A3019 RMK A01 T01970109  RH  057%=      5-min Rain = 0
KWE1 091815Z 23010KT 20/11 A3019 RMK A01 T01970110  RH  057%=      5-min Rain = 0
KWE1 091816Z 22009KT 20/11 A3019 RMK A01 T01970111  RH  057%=      5-min Rain = 0
KWE1 091817Z 23009KT 20/11 A3019 RMK A01 T01980113  RH  058%=      5-min Rain = 0
KWE1 091818Z 24009KT 20/11 A3019 RMK A01 T01980110  RH  057%=      5-min Rain = 0
KWE1 091819Z 23009KT 20/11 A3019 RMK A01 T01980110  RH  057%=      5-min Rain = 0
KWE1 091820Z 22009KT 20/11 A3019 RMK A01 T01980110  RH  057%=      5-min Rain = 0
KWE1 091821Z 23010KT 20/12 A3019 RMK A01 T01990115  RH  059%=      5-min Rain = 0
KWE1 091822Z 22010KT 20/12 A3019 RMK A01 T02000115  RH  058%=      5-min Rain = 0
KWE1 091823Z 22009KT 20/12 A3019 RMK A01 T02010117  RH  058%=      5-min Rain = 0
KWE1 091824Z 23009KT 20/11 A3019 RMK A01 T02020114  RH  057%=      5-min Rain = 0
KWE1 091825Z 24010KT 20/11 A3019 RMK A01 T02030113  RH  056%=      5-min Rain = 0
KWE1 091826Z 23010KT 20/11 A3018 RMK A01 T02030112  RH  056%=      5-min Rain = 0
KWE1 091827Z 22010KT 20/11 A3018 RMK A01 T02030111  RH  055%=      5-min Rain = 0
KWE1 091828Z 21010KT 20/12 A3018 RMK A01 T02030116  RH  057%=      5-min Rain = 0
KWE1 091829Z 22011KT 20/12 A3018 RMK A01 T02030115  RH  057%=      5-min Rain = 0
KWE1 091830Z 21010KT 20/12 A3018 RMK A01 T02040118  RH  058%=      5-min Rain = 0
KWE1 091831Z 22012KT 20/12 A3018 RMK A01 T02030115  RH  057%=      5-min Rain = 0
KWE1 091832Z 22011KT 20/11 A3018 RMK A01 T02020113  RH  056%=      5-min Rain = 0
KWE1 091833Z 22013KT 20/11 A3018 RMK A01 T02020114  RH  057%=      5-min Rain = 0
KWE1 091834Z 22012KT 20/11 A3018 RMK A01 T02010114  RH  057%=      5-min Rain = 0
KWE1 091835Z 22011KT 20/12 A3018 RMK A01 T02010115  RH  058%=      5-min Rain = 0
KWE1 091836Z 22009KT 20/12 A3018 RMK A01 T02010116  RH  058%=      5-min Rain = 0
KWE1 091837Z 21013KT 20/12 A3018 RMK A01 T02020118  RH  058%=      5-min Rain = 0
KWE1 091838Z 22012KT 20/12 A3017 RMK A01 T02020121  RH  060%=      5-min Rain = 0
KWE1 091839Z 22013KT 20/12 A3017 RMK A01 T02030116  RH  057%=      5-min Rain = 0
KWE1 091840Z 23010KT 20/11 A3017 RMK A01 T02020113  RH  056%=      5-min Rain = 0
KWE1 091841Z 22011KT 20/12 A3017 RMK A01 T02010116  RH  058%=      5-min Rain = 0
KWE1 091842Z 22013KT 20/12 A3017 RMK A01 T02020118  RH  059%=      5-min Rain = 0
KWE1 091843Z 23013KT 20/11 A3017 RMK A01 T02020114  RH  057%=      5-min Rain = 0
KWE1 091844Z 22011KT 20/11 A3017 RMK A01 T02010114  RH  057%=      5-min Rain = 0
KWE1 091845Z 22011KT 20/12 A3017 RMK A01 T02020119  RH  059%=      5-min Rain = 0
KWE1 091846Z 22013KT 20/12 A3017 RMK A01 T02030118  RH  058%=      5-min Rain = 0
KWE1 091847Z 22014KT 20/12 A3017 RMK A01 T02030116  RH  057%=      5-min Rain = 0
KWE1 091848Z 23015KT 20/11 A3017 RMK A01 T02020113  RH  056%=      5-min Rain = 0
KWE1 091849Z 23013KT 20/11 A3017 RMK A01 T02020113  RH  056%=      5-min Rain = 0
KWE1 091850Z 22013KT 20/12 A3017 RMK A01 T02020117  RH  058%=      5-min Rain = 0
KWE1 091851Z 21015KT 20/12 A3017 RMK A01 T02020119  RH  059%=      5-min Rain = 0
KWE1 091852Z 21013KT 20/12 A3017 RMK A01 T02020116  RH  058%=      5-min Rain = 0
KWE1 091853Z 21014KT 20/12 A3016 RMK A01 T02010115  RH  058%=      5-min Rain = 0
KWE1 091854Z 22014KT 20/12 A3016 RMK A01 T02000116  RH  058%=      5-min Rain = 0
KWE1 091855Z 21015KT 20/12 A3016 RMK A01 T02000116  RH  058%=      5-min Rain = 0
KWE1 091856Z 21016KT 20/12 A3016 RMK A01 T02000116  RH  058%=      5-min Rain = 0
KWE1 091857Z 21013KT 20/12 A3016 RMK A01 T01990116  RH  059%=      5-min Rain = 0
KWE1 091858Z 21012KT 20/12 A3016 RMK A01 T02000117  RH  059%=      5-min Rain = 0
KWE1 091859Z 21015KT 20/12 A3016 RMK A01 T02010117  RH  058%=      5-min Rain = 0
KWE1 091900Z 22012KT 20/12 A3016 RMK A01 T02000117  RH  058%=      5-min Rain = 0
KWE1 091901Z 22012KT 20/12 A3016 RMK A01 T02010120  RH  060%=      5-min Rain = 0
KWE1 091902Z 21014KT 20/12 A3016 RMK A01 T02030118  RH  058%=      5-min Rain = 0
KWE1 091903Z 21012KT 20/12 A3016 RMK A01 T02020115  RH  057%=      5-min Rain = 0
KWE1 091904Z 21011KT 20/12 A3016 RMK A01 T02010116  RH  058%=      5-min Rain = 0
KWE1 091905Z 22013KT 20/12 A3016 RMK A01 T02010118  RH  059%=      5-min Rain = 0
KWE1 091906Z 22013KT 20/12 A3016 RMK A01 T02020117  RH  058%=      5-min Rain = 0
KWE1 091907Z 21014KT 20/12 A3016 RMK A01 T02020117  RH  058%=      5-min Rain = 0
KWE1 091908Z 21012KT 20/12 A3016 RMK A01 T02020117  RH  058%=      5-min Rain = 0
KWE1 091909Z 21013KT 20/12 A3016 RMK A01 T02020117  RH  058%=      5-min Rain = 0
KWE1 091910Z 21014KT 20/12 A3016 RMK A01 T02030117  RH  058%=      5-min Rain = 0
KWE1 091911Z 21014KT 20/12 A3015 RMK A01 T02030116  RH  058%=      5-min Rain = 0
KWE1 091912Z 21011KT 20/12 A3015 RMK A01 T02020118  RH  058%=      5-min Rain = 0
KWE1 091913Z 22012KT 20/12 A3015 RMK A01 T02030119  RH  058%=      5-min Rain = 0
KWE1 091914Z 22013KT 20/12 A3015 RMK A01 T02040119  RH  058%=      5-min Rain = 0
KWE1 091915Z 22012KT 20/12 A3015 RMK A01 T02040116  RH  057%=      5-min Rain = 0
KWE1 091916Z 22013KT 20/12 A3015 RMK A01 T02040115  RH  056%=      5-min Rain = 0
KWE1 091917Z 23012KT 20/12 A3015 RMK A01 T02040115  RH  057%=      5-min Rain = 0
KWE1 091918Z 21011KT 20/12 A3015 RMK A01 T02040115  RH  057%=      5-min Rain = 0
KWE1 091919Z 21011KT 20/12 A3015 RMK A01 T02040118  RH  058%=      5-min Rain = 0
KWE1 091920Z 22011KT 20/12 A3015 RMK A01 T02040115  RH  056%=      5-min Rain = 0
KWE1 091921Z 22010G15KT 20/12 A3015 RMK A01 T02030117  RH  058%=      5-min Rain = 0
KWE1 091922Z 22012KT 21/12 A3015 RMK A01 T02050118  RH  057%=      5-min Rain = 0
KWE1 091923Z 21013KT 21/12 A3015 RMK A01 T02060118  RH  057%=      5-min Rain = 0
KWE1 091924Z 22012KT 21/12 A3015 RMK A01 T02060117  RH  057%=      5-min Rain = 0
KWE1 091925Z 22012KT 21/11 A3015 RMK A01 T02060114  RH  056%=      5-min Rain = 0
KWE1 091926Z 22013KT 21/12 A3015 RMK A01 T02050115  RH  056%=      5-min Rain = 0
KWE1 091927Z 22013KT 21/12 A3015 RMK A01 T02050116  RH  057%=      5-min Rain = 0
KWE1 091928Z 22011KT 21/12 A3015 RMK A01 T02050116  RH  057%=      5-min Rain = 0
KWE1 091929Z 22010KT 21/12 A3015 RMK A01 T02070121  RH  058%=      5-min Rain = 0
KWE1 091930Z 22009KT 21/12 A3015 RMK A01 T02080121  RH  057%=      5-min Rain = 0
KWE1 091931Z 22011KT 21/12 A3015 RMK A01 T02090122  RH  057%=      5-min Rain = 0
KWE1 091932Z 23011KT 21/12 A3015 RMK A01 T02100119  RH  056%=      5-min Rain = 0
KWE1 091933Z 23010KT 21/12 A3015 RMK A01 T02100116  RH  055%=      5-min Rain = 0
KWE1 091934Z 22011KT 21/12 A3015 RMK A01 T02110116  RH  055%=      5-min Rain = 0
KWE1 091935Z 22011KT 21/12 A3015 RMK A01 T02110120  RH  056%=      5-min Rain = 0
KWE1 091936Z 22011KT 21/12 A3015 RMK A01 T02110120  RH  056%=      5-min Rain = 0
KWE1 091937Z 21011KT 21/12 A3014 RMK A01 T02110121  RH  056%=      5-min Rain = 0
KWE1 091938Z 22013KT 21/12 A3014 RMK A01 T02100115  RH  054%=      5-min Rain = 0
KWE1 091939Z 22012KT 21/11 A3014 RMK A01 T02090114  RH  054%=      5-min Rain = 0
KWE1 091940Z 22011KT 21/11 A3014 RMK A01 T02090114  RH  055%=      5-min Rain = 0
KWE1 091941Z 23010KT 21/12 A3014 RMK A01 T02090116  RH  055%=      5-min Rain = 0
KWE1 091942Z 22010KT 21/12 A3014 RMK A01 T02100115  RH  054%=      5-min Rain = 0
KWE1 091943Z 23010KT 21/11 A3014 RMK A01 T02110114  RH  054%=      5-min Rain = 0
KWE1 091944Z 21011KT 21/12 A3014 RMK A01 T02120117  RH  055%=      5-min Rain = 0
KWE1 091945Z 22009KT 21/12 A3014 RMK A01 T02120120  RH  056%=      5-min Rain = 0
KWE1 091946Z 21011KT 21/12 A3014 RMK A01 T02120121  RH  056%=      5-min Rain = 0
KWE1 091947Z 21012KT 21/12 A3014 RMK A01 T02130117  RH  054%=      5-min Rain = 0
KWE1 091948Z 21013KT 21/12 A3014 RMK A01 T02120118  RH  055%=      5-min Rain = 0
KWE1 091949Z 21013KT 21/12 A3014 RMK A01 T02110117  RH  055%=      5-min Rain = 0
KWE1 091950Z 22011KT 21/12 A3014 RMK A01 T02100117  RH  055%=      5-min Rain = 0
KWE1 091951Z 22011KT 21/12 A3014 RMK A01 T02100120  RH  057%=      5-min Rain = 0
KWE1 091952Z 22010KT 21/12 A3014 RMK A01 T02110116  RH  055%=      5-min Rain = 0
KWE1 091953Z 22010KT 21/12 A3014 RMK A01 T02130115  RH  054%=      5-min Rain = 0
KWE1 091954Z 22011KT 21/12 A3014 RMK A01 T02130117  RH  054%=      5-min Rain = 0
KWE1 091955Z 21012KT 21/12 A3014 RMK A01 T02130117  RH  054%=      5-min Rain = 0
KWE1 091956Z 22010KT 21/12 A3014 RMK A01 T02120116  RH  054%=      5-min Rain = 0
KWE1 091957Z 23010KT 21/12 A3014 RMK A01 T02120115  RH  054%=      5-min Rain = 0
KWE1 091958Z 23010KT 21/12 A3014 RMK A01 T02130115  RH  054%=      5-min Rain = 0
KWE1 091959Z 23009KT 21/12 A3014 RMK A01 T02130118  RH  055%=      5-min Rain = 0
KWE1 092000Z 23009KT 21/12 A3014 RMK A01 T02140117  RH  054%=      5-min Rain = 0
KWE1 092001Z 22010KT 22/12 A3014 RMK A01 T02150117  RH  053%=      5-min Rain = 0
KWE1 092002Z 22013KT 22/11 A3014 RMK A01 T02160113  RH  052%=      5-min Rain = 0
KWE1 092003Z 21009KT 22/11 A3014 RMK A01 T02160112  RH  052%=      5-min Rain = 0
KWE1 092004Z 21008KT 22/12 A3014 RMK A01 T02150118  RH  054%=      5-min Rain = 0
KWE1 092005Z 23011KT 22/12 A3014 RMK A01 T02170118  RH  053%=      5-min Rain = 0
KWE1 092006Z 23010KT 22/11 A3014 RMK A01 T02160114  RH  052%=      5-min Rain = 0
KWE1 092007Z 23011KT 22/12 A3014 RMK A01 T02160115  RH  053%=      5-min Rain = 0
KWE1 092008Z 22011KT 22/11 A3014 RMK A01 T02160114  RH  052%=      5-min Rain = 0
KWE1 092009Z 22009KT 22/11 A3014 RMK A01 T02160114  RH  052%=      5-min Rain = 0
KWE1 092010Z 21011KT 22/12 A3014 RMK A01 T02160115  RH  052%=      5-min Rain = 0
KWE1 092011Z 21009KT 22/11 A3014 RMK A01 T02160112  RH  052%=      5-min Rain = 0
KWE1 092012Z 21011KT 22/12 A3014 RMK A01 T02160116  RH  053%=      5-min Rain = 0
KWE1 092013Z 22010KT 22/12 A3014 RMK A01 T02170115  RH  052%=      5-min Rain = 0
KWE1 092014Z 22011KT 22/12 A3013 RMK A01 T02170115  RH  052%=      5-min Rain = 0
KWE1 092015Z 21011KT 22/12 A3013 RMK A01 T02160116  RH  053%=      5-min Rain = 0
KWE1 092016Z 21012KT 22/12 A3013 RMK A01 T02170115  RH  052%=      5-min Rain = 0
KWE1 092017Z 21012KT 22/11 A3013 RMK A01 T02160114  RH  052%=      5-min Rain = 0
KWE1 092018Z 21009KT 22/11 A3013 RMK A01 T02150112  RH  052%=      5-min Rain = 0
KWE1 092019Z 21010KT 22/12 A3013 RMK A01 T02170116  RH  053%=      5-min Rain = 0
KWE1 092020Z 21012KT 22/12 A3013 RMK A01 T02170116  RH  053%=      5-min Rain = 0
KWE1 092021Z 21012KT 22/12 A3013 RMK A01 T02170116  RH  053%=      5-min Rain = 0
KWE1 092022Z 21011KT 22/11 A3013 RMK A01 T02160114  RH  052%=      5-min Rain = 0
KWE1 092023Z 21011KT 22/12 A3013 RMK A01 T02160116  RH  053%=      5-min Rain = 0
KWE1 092024Z 21010KT 22/11 A3013 RMK A01 T02160114  RH  052%=      5-min Rain = 0
KWE1 092025Z 22009KT 22/12 A3013 RMK A01 T02160117  RH  053%=      5-min Rain = 0
KWE1 092026Z 23010KT 22/12 A3013 RMK A01 T02170115  RH  052%=      5-min Rain = 0
KWE1 092027Z 22008KT 22/11 A3013 RMK A01 T02190113  RH  051%=      5-min Rain = 0
KWE1 092028Z 22008KT 22/12 A3013 RMK A01 T02210118  RH  052%=      5-min Rain = 0
KWE1 092029Z 22011KT 22/12 A3013 RMK A01 T02220119  RH  052%=      5-min Rain = 0
KWE1 092030Z 23010KT 22/12 A3013 RMK A01 T02220116  RH  051%=      5-min Rain = 0
KWE1 092031Z 23009KT 22/11 A3013 RMK A01 T02210112  RH  050%=      5-min Rain = 0
KWE1 092032Z 21009KT 22/11 A3013 RMK A01 T02210113  RH  050%=      5-min Rain = 0
KWE1 092033Z 21011KT 22/12 A3013 RMK A01 T02190115  RH  051%=      5-min Rain = 0
KWE1 092034Z 22011KT 22/12 A3013 RMK A01 T02190115  RH  052%=      5-min Rain = 0
KWE1 092035Z 21011KT 22/12 A3013 RMK A01 T02180116  RH  052%=      5-min Rain = 0
KWE1 092036Z 21009KT 22/12 A3013 RMK A01 T02180115  RH  052%=      5-min Rain = 0
KWE1 092037Z 22010KT 22/12 A3013 RMK A01 T02180116  RH  052%=      5-min Rain = 0
KWE1 092038Z 22011KT 22/12 A3012 RMK A01 T02180117  RH  053%=      5-min Rain = 0
KWE1 092039Z 22009KT 22/12 A3012 RMK A01 T02190118  RH  053%=      5-min Rain = 0
KWE1 092040Z 21009KT 22/12 A3012 RMK A01 T02200121  RH  053%=      5-min Rain = 0
KWE1 092041Z 21012KT 22/12 A3012 RMK A01 T02210119  RH  052%=      5-min Rain = 0
KWE1 092042Z 21011KT 22/11 A3012 RMK A01 T02200114  RH  051%=      5-min Rain = 0
KWE1 092043Z 22011KT 22/12 A3012 RMK A01 T02190118  RH  053%=      5-min Rain = 0
KWE1 092044Z 22012KT 22/12 A3012 RMK A01 T02200117  RH  052%=      5-min Rain = 0
KWE1 092045Z 21010KT 22/12 A3012 RMK A01 T02200119  RH  053%=      5-min Rain = 0
KWE1 092046Z 21010KT 22/12 A3012 RMK A01 T02200117  RH  052%=      5-min Rain = 0
KWE1 092047Z 21010KT 22/12 A3012 RMK A01 T02200116  RH  052%=      5-min Rain = 0
KWE1 092048Z 21012KT 22/12 A3012 RMK A01 T02190116  RH  052%=      5-min Rain = 0
KWE1 092049Z 21011KT 22/11 A3012 RMK A01 T02200113  RH  051%=      5-min Rain = 0
KWE1 092050Z 20012KT 22/11 A3012 RMK A01 T02190114  RH  051%=      5-min Rain = 0
KWE1 092051Z 21009KT 22/11 A3012 RMK A01 T02190114  RH  051%=      5-min Rain = 0
KWE1 092052Z 22010KT 22/12 A3012 RMK A01 T02190116  RH  052%=      5-min Rain = 0
KWE1 092053Z 22008KT 22/11 A3012 RMK A01 T02200114  RH  051%=      5-min Rain = 0
KWE1 092054Z 22010KT 22/12 A3012 RMK A01 T02210119  RH  052%=      5-min Rain = 0
KWE1 092055Z 22009KT 22/12 A3012 RMK A01 T02230117  RH  051%=      5-min Rain = 0
KWE1 092056Z 22011KT 22/11 A3012 RMK A01 T02230113  RH  050%=      5-min Rain = 0
KWE1 092057Z 22013KT 22/11 A3012 RMK A01 T02230114  RH  050%=      5-min Rain = 0
KWE1 092058Z 21012KT 22/11 A3012 RMK A01 T02210110  RH  049%=      5-min Rain = 0
KWE1 092059Z 21009KT 22/11 A3012 RMK A01 T02210113  RH  051%=      5-min Rain = 0
KWE1 092100Z 22011KT 22/11 A3012 RMK A01 T02210110  RH  049%=      5-min Rain = 0
KWE1 092101Z 21013KT 22/11 A3012 RMK A01 T02210111  RH  050%=      5-min Rain = 0
KWE1 092102Z 22011KT 22/11 A3012 RMK A01 T02190113  RH  051%=      5-min Rain = 0
KWE1 092103Z 21011KT 22/11 A3012 RMK A01 T02190113  RH  051%=      5-min Rain = 0
KWE1 092104Z 22011KT 22/12 A3012 RMK A01 T02200115  RH  051%=      5-min Rain = 0
KWE1 092105Z 22011KT 22/12 A3011 RMK A01 T02200115  RH  051%=      5-min Rain = 0
KWE1 092106Z 22012KT 22/11 A3011 RMK A01 T02210114  RH  051%=      5-min Rain = 0
KWE1 092107Z 22012KT 22/11 A3011 RMK A01 T02210113  RH  050%=      5-min Rain = 0
KWE1 092108Z 22009KT 22/12 A3011 RMK A01 T02210115  RH  051%=      5-min Rain = 0
KWE1 092109Z 22010KT 22/12 A3011 RMK A01 T02210115  RH  051%=      5-min Rain = 0
KWE1 092110Z 22010KT 22/12 A3011 RMK A01 T02220116  RH  051%=      5-min Rain = 0
KWE1 092111Z 21011KT 22/12 A3011 RMK A01 T02220115  RH  050%=      5-min Rain = 0
KWE1 092112Z 22009KT 22/11 A3011 RMK A01 T02210114  RH  051%=      5-min Rain = 0
KWE1 092113Z 22008KT 22/12 A3011 RMK A01 T02220117  RH  052%=      5-min Rain = 0
KWE1 092114Z 22010KT 22/12 A3011 RMK A01 T02230116  RH  051%=      5-min Rain = 0
KWE1 092115Z 22011KT 22/11 A3011 RMK A01 T02230113  RH  050%=      5-min Rain = 0
KWE1 092116Z 22012KT 22/11 A3011 RMK A01 T02230114  RH  050%=      5-min Rain = 0
KWE1 092117Z 21010KT 22/12 A3011 RMK A01 T02220115  RH  051%=      5-min Rain = 0
KWE1 092118Z 21010KT 22/11 A3011 RMK A01 T02220114  RH  050%=      5-min Rain = 0
KWE1 092119Z 22009KT 22/12 A3011 RMK A01 T02220115  RH  051%=      5-min Rain = 0
KWE1 092120Z 22009KT 22/12 A3011 RMK A01 T02220119  RH  052%=      5-min Rain = 0
KWE1 092121Z 22008KT 22/12 A3011 RMK A01 T02230121  RH  053%=      5-min Rain = 0
KWE1 092122Z 22009KT 22/12 A3011 RMK A01 T02240121  RH  052%=      5-min Rain = 0
KWE1 092123Z 22011KT 22/11 A3011 RMK A01 T02240113  RH  049%=      5-min Rain = 0
KWE1 092124Z 22011KT 22/11 A3011 RMK A01 T02230112  RH  049%=      5-min Rain = 0
KWE1 092125Z 21010KT 22/11 A3011 RMK A01 T02220114  RH  050%=      5-min Rain = 0
KWE1 092126Z 21009KT 22/11 A3011 RMK A01 T02220113  RH  050%=      5-min Rain = 0
KWE1 092127Z 21010KT 22/11 A3011 RMK A01 T02220113  RH  050%=      5-min Rain = 0
KWE1 092128Z 22010KT 22/12 A3011 RMK A01 T02210116  RH  051%=      5-min Rain = 0
KWE1 092129Z 22008KT 22/12 A3011 RMK A01 T02220119  RH  052%=      5-min Rain = 0
KWE1 092130Z 22010KT 22/12 A3011 RMK A01 T02230117  RH  051%=      5-min Rain = 0
KWE1 092131Z 22011KT 22/11 A3011 RMK A01 T02230114  RH  050%=      5-min Rain = 0
KWE1 092132Z 21012KT 22/12 A3011 RMK A01 T02220116  RH  051%=      5-min Rain = 0
KWE1 092133Z 21011KT 22/12 A3011 RMK A01 T02210116  RH  051%=      5-min Rain = 0
KWE1 092134Z 22011KT 22/12 A301 RMK A01 T02210116  RH  051%=      5-min Rain = 0
KWE1 092135Z 22011KT 22/11 A301 RMK A01 T02210114  RH  051%=      5-min Rain = 0
KWE1 092136Z 22010KT 22/12 A301 RMK A01 T02200117  RH  052%=      5-min Rain = 0
KWE1 092137Z 22010KT 22/12 A301 RMK A01 T02200118  RH  052%=      5-min Rain = 0
KWE1 092138Z 22012KT 22/12 A301 RMK A01 T02210115  RH  051%=      5-min Rain = 0
KWE1 092139Z 22010KT 22/11 A301 RMK A01 T02200113  RH  050%=      5-min Rain = 0
KWE1 092140Z 21008KT 22/12 A301 RMK A01 T02200115  RH  051%=      5-min Rain = 0
KWE1 092141Z 21008G13KT 22/12 A301 RMK A01 T02210120  RH  053%=      5-min Rain = 0
KWE1 092142Z 20011KT 22/12 A301 RMK A01 T02220120  RH  052%=      5-min Rain = 0
KWE1 092143Z 20008KT 22/12 A301 RMK A01 T02210120  RH  053%=      5-min Rain = 0
KWE1 092144Z 20010KT 22/12 A301 RMK A01 T02200121  RH  053%=      5-min Rain = 0
KWE1 092145Z 20010KT 22/12 A301 RMK A01 T02190120  RH  053%=      5-min Rain = 0
KWE1 092146Z 21010KT 22/12 A301 RMK A01 T02180121  RH  054%=      5-min Rain = 0
KWE1 092147Z 21008KT 22/12 A301 RMK A01 T02180119  RH  053%=      5-min Rain = 0
KWE1 092148Z 20010KT 22/12 A301 RMK A01 T02180120  RH  054%=      5-min Rain = 0
KWE1 092149Z 20008KT 22/12 A301 RMK A01 T02180119  RH  053%=      5-min Rain = 0
KWE1 092150Z 21010KT 22/12 A301 RMK A01 T02190119  RH  053%=      5-min Rain = 0
KWE1 092151Z 21012KT 22/12 A301 RMK A01 T02190115  RH  052%=      5-min Rain = 0
KWE1 092152Z 21010KT 22/12 A301 RMK A01 T02190117  RH  052%=      5-min Rain = 0
KWE1 092153Z 21010KT 22/12 A301 RMK A01 T02190119  RH  053%=      5-min Rain = 0
KWE1 092154Z 21010KT 22/12 A301 RMK A01 T02180117  RH  053%=      5-min Rain = 0
KWE1 092155Z 21010KT 22/12 A301 RMK A01 T02180117  RH  053%=      5-min Rain = 0
KWE1 092156Z 21008KT 22/12 A301 RMK A01 T02180119  RH  053%=      5-min Rain = 0
KWE1 092157Z 21011KT 22/12 A301 RMK A01 T02180121  RH  054%=      5-min Rain = 0
KWE1 092158Z 21010KT 22/12 A301 RMK A01 T02190119  RH  053%=      5-min Rain = 0
KWE1 092159Z 19009KT 22/12 A301 RMK A01 T02190122  RH  054%=      5-min Rain = 0
KWE1 092200Z 20008KT 22/12 A301 RMK A01 T02180122  RH  054%=      5-min Rain = 0
KWE1 092201Z 21011KT 22/12 A301 RMK A01 T02180120  RH  054%=      5-min Rain = 0
KWE1 092202Z 21010KT 22/12 A301 RMK A01 T02180118  RH  053%=      5-min Rain = 0
KWE1 092203Z 21011KT 22/12 A301 RMK A01 T02170118  RH  053%=      5-min Rain = 0
KWE1 092204Z 21010KT 22/12 A301 RMK A01 T02170119  RH  054%=      5-min Rain = 0
KWE1 092205Z 21013KT 22/12 A301 RMK A01 T02170119  RH  054%=      5-min Rain = 0
KWE1 092206Z 20012KT 22/12 A301 RMK A01 T02160116  RH  053%=      5-min Rain = 0
KWE1 092207Z 21012KT 22/12 A301 RMK A01 T02150116  RH  053%=      5-min Rain = 0
KWE1 092208Z 20009KT 22/12 A301 RMK A01 T02150117  RH  054%=      5-min Rain = 0
KWE1 092209Z 20008KT 22/12 A301 RMK A01 T02150119  RH  054%=      5-min Rain = 0
KWE1 092210Z 21012KT 22/12 A301 RMK A01 T02160119  RH  054%=      5-min Rain = 0
KWE1 092211Z 21011KT 22/12 A301 RMK A01 T02160116  RH  053%=      5-min Rain = 0
KWE1 092212Z 21009KT 22/12 A301 RMK A01 T02160117  RH  053%=      5-min Rain = 0
KWE1 092213Z 21011KT 22/12 A301 RMK A01 T02160117  RH  053%=      5-min Rain = 0
KWE1 092214Z 21009KT 22/12 A301 RMK A01 T02150117  RH  053%=      5-min Rain = 0
KWE1 092215Z 21010KT 22/12 A301 RMK A01 T02150118  RH  054%=      5-min Rain = 0
KWE1 092216Z 20011KT 22/12 A301 RMK A01 T02150118  RH  054%=      5-min Rain = 0
KWE1 092217Z 20008KT 22/12 A301 RMK A01 T02150118  RH  054%=      5-min Rain = 0
KWE1 092218Z 20010KT 21/12 A301 RMK A01 T02140120  RH  055%=      5-min Rain = 0
KWE1 092219Z 20007KT 21/12 A301 RMK A01 T02140119  RH  055%=      5-min Rain = 0
KWE1 092220Z 21009KT 21/12 A301 RMK A01 T02140119  RH  055%=      5-min Rain = 0
KWE1 092221Z 21010KT 21/12 A301 RMK A01 T02140117  RH  054%=      5-min Rain = 0
KWE1 092222Z 21011KT 21/12 A301 RMK A01 T02140116  RH  054%=      5-min Rain = 0
KWE1 092223Z 21010KT 21/12 A301 RMK A01 T02140116  RH  054%=      5-min Rain = 0
KWE1 092224Z 21009KT 21/12 A301 RMK A01 T02130117  RH  054%=      5-min Rain = 0
KWE1 092225Z 20007KT 21/12 A301 RMK A01 T02130120  RH  055%=      5-min Rain = 0
KWE1 092226Z 21010KT 21/12 A3009 RMK A01 T02130120  RH  055%=      5-min Rain = 0
KWE1 092227Z 21011KT 21/12 A3009 RMK A01 T02130117  RH  054%=      5-min Rain = 0
KWE1 092228Z 21010KT 21/12 A3009 RMK A01 T02140116  RH  054%=      5-min Rain = 0
KWE1 092229Z 20010KT 21/12 A3009 RMK A01 T02130115  RH  054%=      5-min Rain = 0
KWE1 092230Z 20011KT 21/11 A3009 RMK A01 T02120114  RH  054%=      5-min Rain = 0
KWE1 092231Z 19009KT 21/12 A3009 RMK A01 T02120115  RH  054%=      5-min Rain = 0
KWE1 092232Z 20010KT 21/12 A3009 RMK A01 T02120115  RH  054%=      5-min Rain = 0
KWE1 092233Z 20011KT 21/11 A3009 RMK A01 T02110114  RH  054%=      5-min Rain = 0
KWE1 092234Z 20010KT 21/11 A3009 RMK A01 T02110113  RH  054%=      5-min Rain = 0
KWE1 092235Z 20009KT 21/11 A3009 RMK A01 T02110114  RH  054%=      5-min Rain = 0
KWE1 092236Z 20009KT 21/12 A3009 RMK A01 T02110115  RH  054%=      5-min Rain = 0
KWE1 092237Z 20008KT 21/12 A3009 RMK A01 T02110115  RH  054%=      5-min Rain = 0
KWE1 092238Z 20008KT 21/12 A3009 RMK A01 T02110115  RH  054%=      5-min Rain = 0
KWE1 092239Z 20009KT 21/12 A3009 RMK A01 T02110116  RH  055%=      5-min Rain = 0
KWE1 092240Z 20008KT 21/12 A3009 RMK A01 T02100117  RH  055%=      5-min Rain = 0
KWE1 092241Z 20007KT 21/12 A3009 RMK A01 T02100118  RH  056%=      5-min Rain = 0
KWE1 092242Z 20007KT 21/12 A3009 RMK A01 T02100119  RH  056%=      5-min Rain = 0
KWE1 092243Z 20007KT 21/12 A3009 RMK A01 T02100120  RH  056%=      5-min Rain = 0
KWE1 092244Z 20006KT 21/12 A3009 RMK A01 T02100121  RH  057%=      5-min Rain = 0
KWE1 092245Z 20007KT 21/12 A3009 RMK A01 T02100122  RH  057%=      5-min Rain = 0
KWE1 092246Z 20008KT 21/12 A3009 RMK A01 T02090121  RH  057%=      5-min Rain = 0
KWE1 092247Z 20007KT 21/12 A301 RMK A01 T02090121  RH  057%=      5-min Rain = 0
KWE1 092248Z 20008KT 21/12 A301 RMK A01 T02080122  RH  058%=      5-min Rain = 0
KWE1 092249Z 20009KT 21/12 A301 RMK A01 T02070121  RH  058%=      5-min Rain = 0
KWE1 092250Z 20008KT 21/12 A301 RMK A01 T02070121  RH  058%=      5-min Rain = 0
KWE1 092251Z 19007KT 21/12 A301 RMK A01 T02060121  RH  058%=      5-min Rain = 0
KWE1 092252Z 20006KT 21/12 A301 RMK A01 T02060123  RH  059%=      5-min Rain = 0
KWE1 092253Z 20004KT 21/12 A301 RMK A01 T02060123  RH  059%=      5-min Rain = 0
KWE1 092254Z 19007KT 21/12 A301 RMK A01 T02060124  RH  059%=      5-min Rain = 0
KWE1 092255Z 19008KT 21/12 A301 RMK A01 T02050123  RH  059%=      5-min Rain = 0
KWE1 092256Z 19008KT 21/12 A301 RMK A01 T02050122  RH  059%=      5-min Rain = 0
KWE1 092257Z 19008KT 21/12 A301 RMK A01 T02050122  RH  059%=      5-min Rain = 0
KWE1 092258Z 20007KT 20/12 A301 RMK A01 T02040123  RH  059%=      5-min Rain = 0
KWE1 092259Z 20006KT 20/12 A301 RMK A01 T02040123  RH  060%=      5-min Rain = 0
KWE1 092300Z 19007KT 20/12 A3009 RMK A01 T02030123  RH  060%=      5-min Rain = 0
KWE1 092301Z 19007KT 20/12 A3009 RMK A01 T02030123  RH  060%=      5-min Rain = 0
KWE1 092302Z 19007KT 20/12 A3009 RMK A01 T02030123  RH  060%=      5-min Rain = 0
KWE1 092303Z 19008KT 20/12 A3009 RMK A01 T02020122  RH  060%=      5-min Rain = 0
KWE1 092304Z 19007KT 20/12 A3009 RMK A01 T02020122  RH  060%=      5-min Rain = 0
KWE1 092305Z 18006KT 20/12 A3009 RMK A01 T02010122  RH  060%=      5-min Rain = 0
KWE1 092306Z 19008KT 20/12 A3009 RMK A01 T02010122  RH  060%=      5-min Rain = 0
KWE1 092307Z 19008KT 20/12 A3009 RMK A01 T02000121  RH  060%=      5-min Rain = 0
KWE1 092308Z 19008KT 20/12 A3009 RMK A01 T02000121  RH  060%=      5-min Rain = 0
KWE1 092309Z 19008KT 20/12 A301 RMK A01 T01990120  RH  060%=      5-min Rain = 0
KWE1 092310Z 19008KT 20/12 A301 RMK A01 T01980120  RH  061%=      5-min Rain = 0
KWE1 092311Z 19007KT 20/12 A301 RMK A01 T01980120  RH  061%=      5-min Rain = 0
KWE1 092312Z 19008KT 20/12 A301 RMK A01 T01970120  RH  061%=      5-min Rain = 0
KWE1 092313Z 20008KT 20/12 A301 RMK A01 T01970119  RH  061%=      5-min Rain = 0
KWE1 092314Z 20007KT 20/12 A301 RMK A01 T01960118  RH  060%=      5-min Rain = 0
KWE1 092315Z 20008KT 20/12 A301 RMK A01 T01960118  RH  061%=      5-min Rain = 0
KWE1 092316Z 19007KT 20/12 A3009 RMK A01 T01960118  RH  061%=      5-min Rain = 0
KWE1 092317Z 19007KT 20/12 A3009 RMK A01 T01950119  RH  061%=      5-min Rain = 0
KWE1 092318Z 19007KT 20/12 A301 RMK A01 T01950119  RH  062%=      5-min Rain = 0
KWE1 092319Z 19007KT 19/12 A301 RMK A01 T01940119  RH  062%=      5-min Rain = 0
KWE1 092320Z 19006KT 19/12 A301 RMK A01 T01930118  RH  062%=      5-min Rain = 0
KWE1 092321Z 19008KT 19/12 A301 RMK A01 T01920119  RH  062%=      5-min Rain = 0
KWE1 092322Z 19007KT 19/12 A301 RMK A01 T01910118  RH  063%=      5-min Rain = 0
KWE1 092323Z 19007KT 19/12 A3009 RMK A01 T01900118  RH  063%=      5-min Rain = 0
KWE1 092324Z 19008KT 19/12 A3009 RMK A01 T01900118  RH  063%=      5-min Rain = 0
KWE1 092325Z 19007KT 19/12 A3009 RMK A01 T01890117  RH  063%=      5-min Rain = 0
KWE1 092326Z 19007KT 19/12 A3009 RMK A01 T01880116  RH  063%=      5-min Rain = 0
KWE1 092327Z 19007KT 19/12 A3009 RMK A01 T01880117  RH  063%=      5-min Rain = 0
KWE1 092328Z 19007KT 19/12 A3009 RMK A01 T01870116  RH  063%=      5-min Rain = 0
KWE1 092329Z 19007KT 19/12 A3009 RMK A01 T01870116  RH  063%=      5-min Rain = 0
KWE1 092330Z 19007KT 19/12 A3009 RMK A01 T01860116  RH  064%=      5-min Rain = 0
KWE1 092331Z 19007KT 19/12 A3009 RMK A01 T01850116  RH  064%=      5-min Rain = 0
KWE1 092332Z 19007KT 19/12 A3009 RMK A01 T01850116  RH  064%=      5-min Rain = 0
KWE1 092333Z 19007KT 18/12 A3009 RMK A01 T01840116  RH  064%=      5-min Rain = 0
KWE1 092334Z 19007KT 18/12 A3009 RMK A01 T01830116  RH  065%=      5-min Rain = 0
KWE1 092335Z 19007KT 18/12 A3009 RMK A01 T01820115  RH  065%=      5-min Rain = 0
KWE1 092336Z 19007KT 18/12 A3009 RMK A01 T01820116  RH  065%=      5-min Rain = 0
KWE1 092337Z 19007KT 18/12 A3009 RMK A01 T01810115  RH  065%=      5-min Rain = 0
KWE1 092338Z 19008KT 18/12 A3009 RMK A01 T01810116  RH  066%=      5-min Rain = 0
KWE1 092339Z 19007KT 18/12 A3009 RMK A01 T01800115  RH  066%=      5-min Rain = 0
KWE1 092340Z 19007KT 18/12 A3009 RMK A01 T01790115  RH  066%=      5-min Rain = 0
KWE1 092341Z 19008KT 18/12 A3009 RMK A01 T01790116  RH  067%=      5-min Rain = 0
KWE1 092342Z 19008KT 18/12 A3009 RMK A01 T01780115  RH  067%=      5-min Rain = 0
KWE1 092343Z 19008KT 18/12 A3009 RMK A01 T01770115  RH  067%=      5-min Rain = 0
KWE1 092344Z 19007KT 18/12 A3009 RMK A01 T01770115  RH  067%=      5-min Rain = 0
KWE1 092345Z 19007KT 18/12 A3009 RMK A01 T01770116  RH  067%=      5-min Rain = 0
KWE1 092346Z 19008KT 18/12 A3009 RMK A01 T01760116  RH  068%=      5-min Rain = 0
KWE1 092347Z 19007KT 18/12 A3009 RMK A01 T01760115  RH  068%=      5-min Rain = 0
KWE1 092348Z 19007KT 18/12 A3009 RMK A01 T01760116  RH  068%=      5-min Rain = 0
KWE1 092349Z 19007KT 18/12 A3009 RMK A01 T01750115  RH  068%=      5-min Rain = 0
KWE1 092350Z 18007KT 18/12 A3009 RMK A01 T01750116  RH  068%=      5-min Rain = 0
KWE1 092351Z 18007KT 18/12 A3009 RMK A01 T01750116  RH  068%=      5-min Rain = 0
KWE1 092352Z 19007KT 17/12 A3009 RMK A01 T01740116  RH  068%=      5-min Rain = 0
KWE1 092353Z 19007KT 17/12 A3009 RMK A01 T01740116  RH  069%=      5-min Rain = 0
KWE1 092354Z 19008KT 17/12 A3009 RMK A01 T01730116  RH  069%=      5-min Rain = 0
KWE1 092355Z 19008KT 17/12 A3009 RMK A01 T01730115  RH  069%=      5-min Rain = 0
KWE1 092356Z 19008KT 17/12 A3009 RMK A01 T01720115  RH  069%=      5-min Rain = 0
KWE1 092357Z 19008KT 17/12 A3009 RMK A01 T01730115  RH  069%=      5-min Rain = 0
KWE1 092358Z 19008KT 17/12 A3009 RMK A01 T01720115  RH  069%=      5-min Rain = 0
KWE1 092359Z 19008KT 17/12 A3009 RMK A01 T01720115  RH  069%=      5-min Rain = 0
KWE1 100000Z 19008KT 17/11 A3009 RMK A01 T01720114  RH  069%=      5-min Rain = 0
KWE1 100001Z 19008KT 17/11 A3009 RMK A01 T01720114  RH  069%=      5-min Rain = 0
KWE1 100002Z 19008KT 17/11 A3009 RMK A01 T01720114  RH  069%=      5-min Rain = 0
KWE1 100003Z 19008KT 17/11 A3009 RMK A01 T01710114  RH  069%=      5-min Rain = 0
KWE1 100004Z 19008KT 17/11 A3009 RMK A01 T01710114  RH  069%=      5-min Rain = 0
KWE1 100005Z 19007KT 17/11 A3009 RMK A01 T01710114  RH  069%=      5-min Rain = 0
KWE1 100006Z 19008KT 17/11 A3009 RMK A01 T01710114  RH  069%=      5-min Rain = 0
KWE1 100007Z 19008KT 17/11 A3009 RMK A01 T01710113  RH  069%=      5-min Rain = 0
KWE1 100008Z 19009KT 17/11 A3009 RMK A01 T01710113  RH  069%=      5-min Rain = 0
KWE1 100009Z 19008KT 17/11 A3009 RMK A01 T01710112  RH  068%=      5-min Rain = 0
KWE1 100010Z 19008KT 17/11 A3009 RMK A01 T01710113  RH  068%=      5-min Rain = 0
KWE1 100011Z 19008KT 17/11 A3009 RMK A01 T01710112  RH  068%=      5-min Rain = 0
KWE1 100012Z 20008KT 17/11 A3009 RMK A01 T01720113  RH  068%=      5-min Rain = 0
KWE1 100013Z 19008KT 17/11 A3009 RMK A01 T01710112  RH  068%=      5-min Rain = 0
KWE1 100014Z 19008KT 17/11 A3009 RMK A01 T01710112  RH  068%=      5-min Rain = 0
KWE1 100015Z 19008KT 17/11 A3009 RMK A01 T01710112  RH  068%=      5-min Rain = 0
KWE1 100016Z 19008KT 17/11 A3009 RMK A01 T01710112  RH  068%=      5-min Rain = 0
KWE1 100017Z 19008KT 17/11 A3009 RMK A01 T01710112  RH  068%=      5-min Rain = 0
KWE1 100018Z 19008KT 17/11 A3009 RMK A01 T01700112  RH  069%=      5-min Rain = 0
KWE1 100019Z 19008KT 17/11 A3009 RMK A01 T01700112  RH  069%=      5-min Rain = 0
KWE1 100020Z 19008KT 17/11 A3009 RMK A01 T01700112  RH  069%=      5-min Rain = 0
KWE1 100021Z 19008KT 17/11 A3009 RMK A01 T01690112  RH  069%=      5-min Rain = 0
KWE1 100022Z 19008KT 17/11 A3009 RMK A01 T01690112  RH  069%=      5-min Rain = 0
KWE1 100023Z 19008KT 17/11 A3009 RMK A01 T01690112  RH  069%=      5-min Rain = 0
KWE1 100024Z 20008KT 17/11 A3009 RMK A01 T01690111  RH  069%=      5-min Rain = 0
KWE1 100025Z 19008KT 17/11 A3009 RMK A01 T01690112  RH  069%=      5-min Rain = 0
KWE1 100026Z 19008KT 17/11 A3009 RMK A01 T01690111  RH  069%=      5-min Rain = 0
KWE1 100027Z 20008KT 17/11 A3009 RMK A01 T01690111  RH  069%=      5-min Rain = 0
KWE1 100028Z 20008KT 17/11 A3009 RMK A01 T01690111  RH  069%=      5-min Rain = 0
KWE1 100029Z 19008KT 17/11 A3009 RMK A01 T01680111  RH  069%=      5-min Rain = 0
KWE1 100030Z 19008KT 17/11 A3009 RMK A01 T01680111  RH  069%=      5-min Rain = 0
KWE1 100031Z 20008KT 17/11 A3009 RMK A01 T01680111  RH  069%=      5-min Rain = 0
KWE1 100032Z 20008KT 17/11 A3009 RMK A01 T01670111  RH  069%=      5-min Rain = 0
KWE1 100033Z 19007KT 17/11 A3009 RMK A01 T01670111  RH  069%=      5-min Rain = 0
KWE1 100034Z 19007KT 17/11 A3009 RMK A01 T01660110  RH  070%=      5-min Rain = 0
KWE1 100035Z 19007KT 17/11 A3009 RMK A01 T01660110  RH  070%=      5-min Rain = 0
KWE1 100036Z 19008KT 17/11 A3009 RMK A01 T01660110  RH  070%=      5-min Rain = 0
KWE1 100037Z 19007KT 17/11 A3009 RMK A01 T01660110  RH  070%=      5-min Rain = 0
KWE1 100038Z 19008KT 17/11 A3009 RMK A01 T01660110  RH  070%=      5-min Rain = 0
KWE1 100039Z 20008KT 17/11 A3009 RMK A01 T01660110  RH  070%=      5-min Rain = 0
KWE1 100040Z 19008KT 17/11 A3009 RMK A01 T01660110  RH  070%=      5-min Rain = 0
KWE1 100041Z 19007KT 17/11 A301 RMK A01 T01660110  RH  070%=      5-min Rain = 0
KWE1 100042Z 19008KT 17/11 A301 RMK A01 T01650110  RH  070%=      5-min Rain = 0
KWE1 100043Z 19007KT 17/11 A301 RMK A01 T01650110  RH  070%=      5-min Rain = 0
KWE1 100044Z 19008KT 17/11 A301 RMK A01 T01650110  RH  070%=      5-min Rain = 0
KWE1 100045Z 19007KT 16/11 A301 RMK A01 T01640110  RH  070%=      5-min Rain = 0
KWE1 100046Z 19008KT 17/11 A301 RMK A01 T01650110  RH  070%=      5-min Rain = 0
KWE1 100047Z 19008KT 16/11 A301 RMK A01 T01640110  RH  070%=      5-min Rain = 0
KWE1 100048Z 19008KT 16/11 A301 RMK A01 T01640110  RH  070%=      5-min Rain = 0
KWE1 100049Z 19008KT 16/11 A301 RMK A01 T01630110  RH  071%=      5-min Rain = 0
KWE1 100050Z 20008KT 16/11 A301 RMK A01 T01630110  RH  071%=      5-min Rain = 0
KWE1 100051Z 19007KT 16/11 A301 RMK A01 T01630110  RH  071%=      5-min Rain = 0
KWE1 100052Z 19008KT 16/11 A301 RMK A01 T01630109  RH  071%=      5-min Rain = 0
KWE1 100053Z 19008KT 16/11 A301 RMK A01 T01630110  RH  071%=      5-min Rain = 0
KWE1 100054Z 19008KT 16/11 A301 RMK A01 T01630109  RH  071%=      5-min Rain = 0
KWE1 100055Z 19008KT 16/11 A301 RMK A01 T01620109  RH  071%=      5-min Rain = 0
KWE1 100056Z 19008KT 16/11 A301 RMK A01 T01620109  RH  071%=      5-min Rain = 0
KWE1 100057Z 19007KT 16/11 A301 RMK A01 T01610109  RH  071%=      5-min Rain = 0
KWE1 100058Z 19007KT 16/11 A301 RMK A01 T01600109  RH  071%=      5-min Rain = 0
KWE1 100059Z 18007KT 16/11 A301 RMK A01 T01600109  RH  072%=      5-min Rain = 0
KWE1 100100Z 19007KT 16/11 A301 RMK A01 T01590110  RH  072%=      5-min Rain = 0
KWE1 100101Z 19007KT 16/11 A301 RMK A01 T01580109  RH  073%=      5-min Rain = 0
KWE1 100102Z 18007KT 16/11 A301 RMK A01 T01580110  RH  073%=      5-min Rain = 0
KWE1 100103Z 18007KT 16/11 A301 RMK A01 T01570109  RH  073%=      5-min Rain = 0
KWE1 100104Z 19007KT 16/11 A301 RMK A01 T01570110  RH  073%=      5-min Rain = 0
KWE1 100105Z 19007KT 16/11 A301 RMK A01 T01560110  RH  074%=      5-min Rain = 0
KWE1 100106Z 19007KT 16/11 A301 RMK A01 T01560110  RH  074%=      5-min Rain = 0
KWE1 100107Z 19007KT 16/11 A301 RMK A01 T01550110  RH  074%=      5-min Rain = 0
KWE1 100108Z 19007KT 16/11 A301 RMK A01 T01550110  RH  075%=      5-min Rain = 0
KWE1 100109Z 19007KT 15/11 A301 RMK A01 T01540110  RH  075%=      5-min Rain = 0
KWE1 100110Z 19007KT 15/11 A301 RMK A01 T01540110  RH  075%=      5-min Rain = 0
KWE1 100111Z 19007KT 15/11 A301 RMK A01 T01540110  RH  075%=      5-min Rain = 0
KWE1 100112Z 19007KT 15/11 A301 RMK A01 T01540110  RH  075%=      5-min Rain = 0
KWE1 100113Z 19007KT 15/11 A301 RMK A01 T01530110  RH  075%=      5-min Rain = 0
KWE1 100114Z 19007KT 15/11 A301 RMK A01 T01530110  RH  075%=      5-min Rain = 0
KWE1 100115Z 19007KT 15/11 A301 RMK A01 T01530110  RH  075%=      5-min Rain = 0
KWE1 100116Z 19007KT 15/11 A301 RMK A01 T01530109  RH  075%=      5-min Rain = 0
KWE1 100117Z 20007KT 15/11 A301 RMK A01 T01530109  RH  075%=      5-min Rain = 0
KWE1 100118Z 20007KT 15/11 A301 RMK A01 T01530109  RH  075%=      5-min Rain = 0
KWE1 100119Z 19007KT 15/11 A301 RMK A01 T01530109  RH  075%=      5-min Rain = 0
KWE1 100120Z 20007KT 15/11 A301 RMK A01 T01540109  RH  075%=      5-min Rain = 0
KWE1 100121Z 20007KT 15/11 A301 RMK A01 T01540109  RH  074%=      5-min Rain = 0
KWE1 100122Z 20008KT 16/11 A301 RMK A01 T01550109  RH  074%=      5-min Rain = 0
KWE1 100123Z 20008KT 16/11 A301 RMK A01 T01560109  RH  074%=      5-min Rain = 0
KWE1 100124Z 20007KT 16/11 A301 RMK A01 T01570109  RH  073%=      5-min Rain = 0
KWE1 100125Z 20008KT 16/11 A301 RMK A01 T01570109  RH  073%=      5-min Rain = 0
KWE1 100126Z 20007KT 16/11 A301 RMK A01 T01580109  RH  073%=      5-min Rain = 0
KWE1 100127Z 20007KT 16/11 A301 RMK A01 T01590109  RH  072%=      5-min Rain = 0
KWE1 100128Z 20007KT 16/11 A301 RMK A01 T01590109  RH  072%=      5-min Rain = 0
KWE1 100129Z 20007KT 16/11 A301 RMK A01 T01600109  RH  072%=      5-min Rain = 0
KWE1 100130Z 20007KT 16/11 A301 RMK A01 T01600108  RH  072%=      5-min Rain = 0
KWE1 100131Z 20007KT 16/11 A301 RMK A01 T01600109  RH  072%=      5-min Rain = 0
KWE1 100132Z 20007KT 16/11 A301 RMK A01 T01600109  RH  071%=      5-min Rain = 0
KWE1 100133Z 20007KT 16/11 A301 RMK A01 T01600108  RH  071%=      5-min Rain = 0
KWE1 100134Z 20007KT 16/11 A301 RMK A01 T01600109  RH  071%=      5-min Rain = 0
KWE1 100135Z 20007KT 16/11 A301 RMK A01 T01600108  RH  071%=      5-min Rain = 0
KWE1 100136Z 20007KT 16/11 A301 RMK A01 T01600108  RH  071%=      5-min Rain = 0
KWE1 100137Z 20007KT 16/11 A301 RMK A01 T01600108  RH  071%=      5-min Rain = 0
KWE1 100138Z 20007KT 16/11 A301 RMK A01 T01600108  RH  071%=      5-min Rain = 0
KWE1 100139Z 20007KT 16/11 A301 RMK A01 T01590108  RH  071%=      5-min Rain = 0
KWE1 100140Z 20008KT 16/11 A301 RMK A01 T01590108  RH  071%=      5-min Rain = 0
KWE1 100141Z 20008KT 16/11 A301 RMK A01 T01590108  RH  071%=      5-min Rain = 0
KWE1 100142Z 20007KT 16/11 A301 RMK A01 T01590108  RH  071%=      5-min Rain = 0
KWE1 100143Z 20008KT 16/11 A301 RMK A01 T01600108  RH  071%=      5-min Rain = 0
KWE1 100144Z 20007KT 16/11 A301 RMK A01 T01600108  RH  071%=      5-min Rain = 0
KWE1 100145Z 20007KT 16/11 A301 RMK A01 T01600108  RH  071%=      5-min Rain = 0
KWE1 100146Z 20007KT 16/11 A301 RMK A01 T01610108  RH  071%=      5-min Rain = 0
KWE1 100147Z 20007KT 16/11 A301 RMK A01 T01600108  RH  071%=      5-min Rain = 0
KWE1 100148Z 20007KT 16/11 A301 RMK A01 T01600108  RH  071%=      5-min Rain = 0
KWE1 100149Z 20007KT 16/11 A301 RMK A01 T01590107  RH  072%=      5-min Rain = 0
KWE1 100150Z 20007KT 16/11 A301 RMK A01 T01570107  RH  072%=      5-min Rain = 0
KWE1 100151Z 20007KT 16/11 A301 RMK A01 T01570107  RH  072%=      5-min Rain = 0
KWE1 100152Z 20007KT 16/11 A301 RMK A01 T01560107  RH  073%=      5-min Rain = 0
KWE1 100153Z 20007KT 16/11 A301 RMK A01 T01550107  RH  073%=      5-min Rain = 0
KWE1 100154Z 20007KT 16/11 A301 RMK A01 T01550107  RH  073%=      5-min Rain = 0
KWE1 100155Z 20007KT 16/11 A301 RMK A01 T01550107  RH  073%=      5-min Rain = 0
KWE1 100156Z 20007KT 16/11 A301 RMK A01 T01550107  RH  073%=      5-min Rain = 0
KWE1 100157Z 20007KT 16/11 A301 RMK A01 T01560107  RH  073%=      5-min Rain = 0
KWE1 100158Z 20007KT 16/11 A301 RMK A01 T01560107  RH  073%=      5-min Rain = 0
KWE1 100159Z 20007KT 16/11 A301 RMK A01 T01570108  RH  072%=      5-min Rain = 0
KWE1 100200Z 20007KT 16/11 A301 RMK A01 T01580108  RH  072%=      5-min Rain = 0
KWE1 100201Z 20007KT 16/11 A301 RMK A01 T01580107  RH  072%=      5-min Rain = 0
KWE1 100202Z 20007KT 16/11 A301 RMK A01 T01580107  RH  072%=      5-min Rain = 0
KWE1 100203Z 20007KT 16/11 A301 RMK A01 T01580107  RH  072%=      5-min Rain = 0
KWE1 100204Z 20006KT 16/11 A301 RMK A01 T01580107  RH  071%=      5-min Rain = 0
KWE1 100205Z 20007KT 16/11 A301 RMK A01 T01580107  RH  071%=      5-min Rain = 0
KWE1 100206Z 20006KT 16/11 A301 RMK A01 T01590107  RH  071%=      5-min Rain = 0
KWE1 100207Z 20007KT 16/11 A301 RMK A01 T01580107  RH  071%=      5-min Rain = 0
KWE1 100208Z 20007KT 16/11 A301 RMK A01 T01580106  RH  071%=      5-min Rain = 0
KWE1 100209Z 20007KT 16/11 A301 RMK A01 T01580106  RH  071%=      5-min Rain = 0
KWE1 100210Z 20007KT 16/11 A301 RMK A01 T01590106  RH  071%=      5-min Rain = 0
KWE1 100211Z 20007KT 16/11 A301 RMK A01 T01590106  RH  071%=      5-min Rain = 0
KWE1 100212Z 20007KT 16/11 A301 RMK A01 T01600106  RH  070%=      5-min Rain = 0
KWE1 100213Z 20008KT 16/11 A301 RMK A01 T01590106  RH  071%=      5-min Rain = 0
KWE1 100214Z 20007KT 16/11 A301 RMK A01 T01590106  RH  071%=      5-min Rain = 0
KWE1 100215Z 20007KT 16/11 A301 RMK A01 T01590106  RH  071%=      5-min Rain = 0
KWE1 100216Z 20007KT 16/11 A301 RMK A01 T01590106  RH  070%=      5-min Rain = 0
KWE1 100217Z 20008KT 16/11 A301 RMK A01 T01590106  RH  070%=      5-min Rain = 0
KWE1 100218Z 20008KT 16/11 A301 RMK A01 T01600106  RH  070%=      5-min Rain = 0
KWE1 100219Z 20007KT 16/11 A301 RMK A01 T01600106  RH  070%=      5-min Rain = 0
KWE1 100220Z 20007KT 16/11 A301 RMK A01 T01600106  RH  070%=      5-min Rain = 0
KWE1 100221Z 20008KT 16/11 A301 RMK A01 T01600106  RH  070%=      5-min Rain = 0
KWE1 100222Z 20008KT 16/11 A301 RMK A01 T01590105  RH  070%=      5-min Rain = 0
KWE1 100223Z 20008KT 16/11 A301 RMK A01 T01590105  RH  070%=      5-min Rain = 0
KWE1 100224Z 20008KT 16/11 A301 RMK A01 T01590106  RH  070%=      5-min Rain = 0
KWE1 100225Z 20007KT 16/11 A301 RMK A01 T01590105  RH  070%=      5-min Rain = 0
KWE1 100226Z 20007KT 16/11 A301 RMK A01 T01590105  RH  070%=      5-min Rain = 0
KWE1 100227Z 20008KT 16/11 A301 RMK A01 T01590105  RH  071%=      5-min Rain = 0
KWE1 100228Z 20007KT 16/11 A301 RMK A01 T01580105  RH  071%=      5-min Rain = 0
KWE1 100229Z 20007KT 16/11 A301 RMK A01 T01580105  RH  071%=      5-min Rain = 0
KWE1 100230Z 20007KT 16/11 A301 RMK A01 T01570105  RH  071%=      5-min Rain = 0
KWE1 100231Z 20008KT 16/11 A301 RMK A01 T01570105  RH  071%=      5-min Rain = 0
KWE1 100232Z 19007KT 16/11 A301 RMK A01 T01570105  RH  071%=      5-min Rain = 0
KWE1 100233Z 20007KT 16/11 A301 RMK A01 T01570105  RH  071%=      5-min Rain = 0
KWE1 100234Z 20007KT 16/11 A301 RMK A01 T01570106  RH  072%=      5-min Rain = 0
KWE1 100235Z 20007KT 16/11 A301 RMK A01 T01560106  RH  072%=      5-min Rain = 0
KWE1 100236Z 20007KT 16/11 A301 RMK A01 T01560106  RH  072%=      5-min Rain = 0
KWE1 100237Z 20007KT 16/11 A301 RMK A01 T01560106  RH  072%=      5-min Rain = 0
KWE1 100238Z 20007KT 16/11 A301 RMK A01 T01560106  RH  072%=      5-min Rain = 0
KWE1 100239Z 20007KT 16/11 A301 RMK A01 T01560106  RH  072%=      5-min Rain = 0
KWE1 100240Z 20007KT 16/11 A301 RMK A01 T01560106  RH  072%=      5-min Rain = 0
KWE1 100241Z 20007KT 16/11 A301 RMK A01 T01560106  RH  072%=      5-min Rain = 0
KWE1 100242Z 19007KT 16/11 A301 RMK A01 T01560106  RH  072%=      5-min Rain = 0
KWE1 100243Z 20007KT 16/11 A301 RMK A01 T01550106  RH  073%=      5-min Rain = 0
KWE1 100244Z 20007KT 15/11 A301 RMK A01 T01540106  RH  073%=      5-min Rain = 0
KWE1 100245Z 19007KT 15/11 A301 RMK A01 T01540106  RH  073%=      5-min Rain = 0
KWE1 100246Z 20008KT 15/11 A301 RMK A01 T01540106  RH  073%=      5-min Rain = 0
KWE1 100247Z 19007KT 15/11 A301 RMK A01 T01540106  RH  073%=      5-min Rain = 0
KWE1 100248Z 20008KT 15/11 A301 RMK A01 T01530106  RH  074%=      5-min Rain = 0
KWE1 100249Z 20007KT 15/11 A301 RMK A01 T01530106  RH  074%=      5-min Rain = 0
KWE1 100250Z 20008KT 15/11 A301 RMK A01 T01540107  RH  073%=      5-min Rain = 0
KWE1 100251Z 20008KT 15/11 A301 RMK A01 T01540106  RH  073%=      5-min Rain = 0
KWE1 100252Z 20007KT 15/11 A301 RMK A01 T01540107  RH  073%=      5-min Rain = 0
KWE1 100253Z 20007KT 15/11 A301 RMK A01 T01540107  RH  073%=      5-min Rain = 0
KWE1 100254Z 20007KT 15/11 A301 RMK A01 T01540107  RH  073%=      5-min Rain = 0
KWE1 100255Z 20007KT 15/11 A301 RMK A01 T01540106  RH  073%=      5-min Rain = 0
KWE1 100256Z 19007KT 15/11 A301 RMK A01 T01530106  RH  074%=      5-min Rain = 0
KWE1 100257Z 19007KT 15/11 A301 RMK A01 T01530106  RH  074%=      5-min Rain = 0
KWE1 100258Z 19007KT 15/11 A301 RMK A01 T01520106  RH  074%=      5-min Rain = 0
KWE1 100259Z 19007KT 15/11 A301 RMK A01 T01510106  RH  075%=      5-min Rain = 0
KWE1 100300Z 19008KT 15/11 A301 RMK A01 T01500106  RH  075%=      5-min Rain = 0
KWE1 100301Z 19006KT 15/11 A301 RMK A01 T01500106  RH  075%=      5-min Rain = 0
KWE1 100302Z 19007KT 15/11 A301 RMK A01 T01490106  RH  076%=      5-min Rain = 0
KWE1 100303Z 20009KT 15/11 A301 RMK A01 T01480106  RH  076%=      5-min Rain = 0
KWE1 100304Z 19007KT 15/11 A301 RMK A01 T01480107  RH  076%=      5-min Rain = 0
KWE1 100305Z 19006KT 15/11 A301 RMK A01 T01480107  RH  076%=      5-min Rain = 0
KWE1 100306Z 19007KT 15/11 A301 RMK A01 T01470106  RH  076%=      5-min Rain = 0
KWE1 100307Z 19008KT 15/11 A301 RMK A01 T01470106  RH  076%=      5-min Rain = 0
KWE1 100308Z 19008KT 15/11 A301 RMK A01 T01470106  RH  077%=      5-min Rain = 0
KWE1 100309Z 19008KT 15/11 A301 RMK A01 T01470106  RH  076%=      5-min Rain = 0
KWE1 100310Z 19009KT 15/11 A301 RMK A01 T01480106  RH  076%=      5-min Rain = 0
KWE1 100311Z 19008KT 15/11 A301 RMK A01 T01480105  RH  075%=      5-min Rain = 0
KWE1 100312Z 19009KT 15/11 A301 RMK A01 T01490105  RH  075%=      5-min Rain = 0
KWE1 100313Z 19009KT 15/11 A301 RMK A01 T01500106  RH  075%=      5-min Rain = 0
KWE1 100314Z 19009KT 15/11 A301 RMK A01 T01500105  RH  074%=      5-min Rain = 0
KWE1 100315Z 19009KT 15/11 A301 RMK A01 T01510106  RH  074%=      5-min Rain = 0
KWE1 100316Z 19009KT 15/11 A301 RMK A01 T01520106  RH  074%=      5-min Rain = 0
KWE1 100317Z 19009KT 15/11 A301 RMK A01 T01520106  RH  074%=      5-min Rain = 0
KWE1 100318Z 19009KT 15/11 A301 RMK A01 T01520106  RH  074%=      5-min Rain = 0
KWE1 100319Z 19009KT 15/11 A301 RMK A01 T01520106  RH  074%=      5-min Rain = 0
KWE1 100320Z 19010KT 15/11 A301 RMK A01 T01520106  RH  074%=      5-min Rain = 0
KWE1 100321Z 19010KT 15/11 A301 RMK A01 T01520106  RH  074%=      5-min Rain = 0
KWE1 100322Z 19009KT 15/11 A301 RMK A01 T01520106  RH  074%=      5-min Rain = 0
KWE1 100323Z 20009KT 15/11 A301 RMK A01 T01520106  RH  074%=      5-min Rain = 0
KWE1 100324Z 19009KT 15/11 A301 RMK A01 T01520106  RH  074%=      5-min Rain = 0
KWE1 100325Z 19009KT 15/11 A301 RMK A01 T01510106  RH  074%=      5-min Rain = 0
KWE1 100326Z 19009KT 15/11 A301 RMK A01 T01510106  RH  074%=      5-min Rain = 0
KWE1 100327Z 19009KT 15/11 A301 RMK A01 T01510106  RH  075%=      5-min Rain = 0
KWE1 100328Z 19010KT 15/11 A301 RMK A01 T01500106  RH  075%=      5-min Rain = 0
KWE1 100329Z 19009KT 15/11 A301 RMK A01 T01490106  RH  076%=      5-min Rain = 0
KWE1 100330Z 20009KT 15/11 A301 RMK A01 T01490106  RH  076%=      5-min Rain = 0
KWE1 100331Z 19010KT 15/11 A301 RMK A01 T01490107  RH  076%=      5-min Rain = 0
KWE1 100332Z 19009KT 15/11 A301 RMK A01 T01490107  RH  076%=      5-min Rain = 0
KWE1 100333Z 20009KT 15/11 A301 RMK A01 T01500107  RH  076%=      5-min Rain = 0
KWE1 100334Z 20009KT 15/11 A301 RMK A01 T01500107  RH  076%=      5-min Rain = 0
KWE1 100335Z 20009KT 15/11 A301 RMK A01 T01500107  RH  075%=      5-min Rain = 0
KWE1 100336Z 20009KT 15/11 A301 RMK A01 T01510107  RH  075%=      5-min Rain = 0
KWE1 100337Z 20008KT 15/11 A301 RMK A01 T01510107  RH  075%=      5-min Rain = 0
KWE1 100338Z 20010KT 15/11 A301 RMK A01 T01510107  RH  075%=      5-min Rain = 0
KWE1 100339Z 20009KT 15/11 A301 RMK A01 T01510107  RH  075%=      5-min Rain = 0
KWE1 100340Z 20009KT 15/11 A301 RMK A01 T01510107  RH  075%=      5-min Rain = 0
KWE1 100341Z 20010KT 15/11 A301 RMK A01 T01510107  RH  075%=      5-min Rain = 0
KWE1 100342Z 20009KT 15/11 A301 RMK A01 T01510108  RH  075%=      5-min Rain = 0
KWE1 100343Z 20009KT 15/11 A301 RMK A01 T01520108  RH  075%=      5-min Rain = 0
KWE1 100344Z 20009KT 15/11 A301 RMK A01 T01520108  RH  075%=      5-min Rain = 0
KWE1 100345Z 20009KT 15/11 A301 RMK A01 T01520108  RH  075%=      5-min Rain = 0
KWE1 100346Z 19009KT 15/11 A301 RMK A01 T01520108  RH  075%=      5-min Rain = 0
KWE1 100347Z 19008KT 15/11 A301 RMK A01 T01520108  RH  075%=      5-min Rain = 0
KWE1 100348Z 20009KT 15/11 A301 RMK A01 T01520108  RH  075%=      5-min Rain = 0
KWE1 100349Z 20009KT 15/11 A301 RMK A01 T01510108  RH  075%=      5-min Rain = 0
KWE1 100350Z 20008KT 15/11 A301 RMK A01 T01510108  RH  075%=      5-min Rain = 0
KWE1 100351Z 20009KT 15/11 A301 RMK A01 T01510108  RH  076%=      5-min Rain = 0
KWE1 100352Z 20009KT 15/11 A301 RMK A01 T01500108  RH  076%=      5-min Rain = 0
KWE1 100353Z 20009KT 15/11 A301 RMK A01 T01500108  RH  076%=      5-min Rain = 0
KWE1 100354Z 20009KT 15/11 A301 RMK A01 T01500108  RH  076%=      5-min Rain = 0
KWE1 100355Z 20008KT 15/11 A301 RMK A01 T01510109  RH  076%=      5-min Rain = 0
KWE1 100356Z 20009KT 15/11 A301 RMK A01 T01510109  RH  076%=      5-min Rain = 0
KWE1 100357Z 20010KT 15/11 A301 RMK A01 T01510109  RH  076%=      5-min Rain = 0
KWE1 100358Z 20009KT 15/11 A301 RMK A01 T01510108  RH  076%=      5-min Rain = 0
KWE1 100359Z 20009KT 15/11 A301 RMK A01 T01510108  RH  075%=      5-min Rain = 0
KWE1 100400Z 20010KT 15/11 A301 RMK A01 T01510108  RH  076%=      5-min Rain = 0
KWE1 100401Z 20008KT 15/11 A301 RMK A01 T01510108  RH  076%=      5-min Rain = 0
KWE1 100402Z 20009KT 15/11 A301 RMK A01 T01520109  RH  075%=      5-min Rain = 0
KWE1 100403Z 20009KT 15/11 A301 RMK A01 T01510108  RH  075%=      5-min Rain = 0
KWE1 100404Z 21009KT 15/11 A301 RMK A01 T01510108  RH  076%=      5-min Rain = 0
KWE1 100405Z 20009KT 15/11 A301 RMK A01 T01510108  RH  076%=      5-min Rain = 0
KWE1 100406Z 20008KT 15/11 A301 RMK A01 T01510108  RH  076%=      5-min Rain = 0
KWE1 100407Z 20009KT 15/11 A301 RMK A01 T01510108  RH  076%=      5-min Rain = 0
KWE1 100408Z 20008KT 15/11 A301 RMK A01 T01510108  RH  076%=      5-min Rain = 0
KWE1 100409Z 20009KT 15/11 A301 RMK A01 T01500108  RH  076%=      5-min Rain = 0
KWE1 100410Z 20008KT 15/11 A301 RMK A01 T01500108  RH  076%=      5-min Rain = 0
KWE1 100411Z 20007KT 15/11 A301 RMK A01 T01500108  RH  076%=      5-min Rain = 0
KWE1 100412Z 20007KT 15/11 A301 RMK A01 T01490108  RH  076%=      5-min Rain = 0
KWE1 100413Z 20008KT 15/11 A301 RMK A01 T01480108  RH  077%=      5-min Rain = 0
KWE1 100414Z 20008KT 15/11 A301 RMK A01 T01480108  RH  077%=      5-min Rain = 0
KWE1 100415Z 20008KT 15/11 A301 RMK A01 T01470108  RH  077%=      5-min Rain = 0
KWE1 100416Z 20009KT 15/11 A301 RMK A01 T01470108  RH  077%=      5-min Rain = 0
KWE1 100417Z 20008KT 15/11 A301 RMK A01 T01470107  RH  077%=      5-min Rain = 0
KWE1 100418Z 20009KT 15/11 A301 RMK A01 T01460107  RH  077%=      5-min Rain = 0
KWE1 100419Z 20007KT 15/11 A301 RMK A01 T01460107  RH  078%=      5-min Rain = 0
KWE1 100420Z 20007KT 15/11 A301 RMK A01 T01460108  RH  078%=      5-min Rain = 0
KWE1 100421Z 20009KT 15/11 A301 RMK A01 T01450107  RH  078%=      5-min Rain = 0
KWE1 100422Z 20008KT 15/11 A301 RMK A01 T01450107  RH  078%=      5-min Rain = 0
KWE1 100423Z 20007KT 15/11 A301 RMK A01 T01450108  RH  078%=      5-min Rain = 0
KWE1 100424Z 20008KT 15/11 A301 RMK A01 T01450107  RH  078%=      5-min Rain = 0
KWE1 100425Z 20007KT 15/11 A301 RMK A01 T01450107  RH  078%=      5-min Rain = 0
KWE1 100426Z 20007KT 14/11 A301 RMK A01 T01440107  RH  078%=      5-min Rain = 0
KWE1 100427Z 20007KT 14/11 A301 RMK A01 T01440107  RH  078%=      5-min Rain = 0
KWE1 100428Z 20007KT 14/11 A301 RMK A01 T01430107  RH  079%=      5-min Rain = 0
KWE1 100429Z 19008KT 14/11 A301 RMK A01 T01430107  RH  079%=      5-min Rain = 0
KWE1 100430Z 19007KT 14/11 A301 RMK A01 T01430107  RH  079%=      5-min Rain = 0
KWE1 100431Z 20007KT 14/11 A301 RMK A01 T01430107  RH  079%=      5-min Rain = 0
KWE1 100432Z 20008KT 14/11 A301 RMK A01 T01420106  RH  079%=      5-min Rain = 0
KWE1 100433Z 20008KT 14/11 A301 RMK A01 T01420106  RH  079%=      5-min Rain = 0
KWE1 100434Z 20008KT 14/11 A301 RMK A01 T01410106  RH  079%=      5-min Rain = 0
KWE1 100435Z 19007KT 14/11 A301 RMK A01 T01410106  RH  080%=      5-min Rain = 0
KWE1 100436Z 19009KT 14/11 A301 RMK A01 T01400106  RH  080%=      5-min Rain = 0
KWE1 100437Z 20008KT 14/11 A301 RMK A01 T01400107  RH  080%=      5-min Rain = 0
KWE1 100438Z 19008KT 14/11 A301 RMK A01 T01400106  RH  080%=      5-min Rain = 0
KWE1 100439Z 20008KT 14/11 A301 RMK A01 T01400106  RH  080%=      5-min Rain = 0
KWE1 100440Z 20008KT 14/11 A301 RMK A01 T01400106  RH  080%=      5-min Rain = 0
KWE1 100441Z 20008KT 14/11 A301 RMK A01 T01390106  RH  080%=      5-min Rain = 0
KWE1 100442Z 20008KT 14/11 A301 RMK A01 T01390106  RH  081%=      5-min Rain = 0
KWE1 100443Z 20008KT 14/11 A301 RMK A01 T01390106  RH  081%=      5-min Rain = 0
KWE1 100444Z 20008KT 14/11 A301 RMK A01 T01390106  RH  081%=      5-min Rain = 0
KWE1 100445Z 20008KT 14/11 A301 RMK A01 T01390106  RH  081%=      5-min Rain = 0
KWE1 100446Z 20007KT 14/11 A301 RMK A01 T01380106  RH  081%=      5-min Rain = 0
KWE1 100447Z 20007KT 14/11 A301 RMK A01 T01380106  RH  081%=      5-min Rain = 0
KWE1 100448Z 20007KT 14/11 A301 RMK A01 T01380106  RH  081%=      5-min Rain = 0
KWE1 100449Z 20007KT 14/11 A301 RMK A01 T01380106  RH  081%=      5-min Rain = 0
KWE1 100450Z 20007KT 14/11 A301 RMK A01 T01380106  RH  081%=      5-min Rain = 0
KWE1 100451Z 20007KT 14/11 A3009 RMK A01 T01370105  RH  081%=      5-min Rain = 0
KWE1 100452Z 20007KT 14/11 A3009 RMK A01 T01370105  RH  081%=      5-min Rain = 0
KWE1 100453Z 20008KT 14/11 A3009 RMK A01 T01360105  RH  082%=      5-min Rain = 0
KWE1 100454Z 20007KT 14/11 A3009 RMK A01 T01360106  RH  082%=      5-min Rain = 0
KWE1 100455Z 20007KT 14/11 A3009 RMK A01 T01360105  RH  082%=      5-min Rain = 0
KWE1 100456Z 20007KT 14/11 A3009 RMK A01 T01360106  RH  082%=      5-min Rain = 0
KWE1 100457Z 20007KT 14/11 A3009 RMK A01 T01360106  RH  082%=      5-min Rain = 0
KWE1 100458Z 20007KT 14/11 A3009 RMK A01 T01360106  RH  082%=      5-min Rain = 0
KWE1 100459Z 20007KT 14/11 A3009 RMK A01 T01360105  RH  082%=      5-min Rain = 0
KWE1 100500Z 20006KT 14/11 A3009 RMK A01 T01350105  RH  082%=      5-min Rain = 0
KWE1 100501Z 20007KT 14/11 A3009 RMK A01 T01350105  RH  082%=      5-min Rain = 0
KWE1 100502Z 20006KT 13/10 A3009 RMK A01 T01340104  RH  082%=      5-min Rain = 0
KWE1 100503Z 20007KT 13/10 A3009 RMK A01 T01330104  RH  082%=      5-min Rain = 0
KWE1 100504Z 20006KT 13/10 A3009 RMK A01 T01330103  RH  082%=      5-min Rain = 0
KWE1 100505Z 19006KT 13/10 A3009 RMK A01 T01320103  RH  083%=      5-min Rain = 0
KWE1 100506Z 20006KT 13/10 A3009 RMK A01 T01310102  RH  083%=      5-min Rain = 0
KWE1 100507Z 19006KT 13/10 A3009 RMK A01 T01300102  RH  083%=      5-min Rain = 0
KWE1 100508Z 19006KT 13/10 A3009 RMK A01 T01290102  RH  084%=      5-min Rain = 0
KWE1 100509Z 20006KT 13/10 A3009 RMK A01 T01280102  RH  084%=      5-min Rain = 0
KWE1 100510Z 20006KT 13/10 A3009 RMK A01 T01280102  RH  084%=      5-min Rain = 0
KWE1 100511Z 20006KT 13/10 A3009 RMK A01 T01270101  RH  084%=      5-min Rain = 0
KWE1 100512Z 20006KT 13/10 A3009 RMK A01 T01270101  RH  085%=      5-min Rain = 0
KWE1 100513Z 19006KT 13/10 A3009 RMK A01 T01260101  RH  085%=      5-min Rain = 0
KWE1 100514Z 19006KT 13/10 A3009 RMK A01 T01260101  RH  085%=      5-min Rain = 0
KWE1 100515Z 19006KT 13/10 A3009 RMK A01 T01250101  RH  085%=      5-min Rain = 0
KWE1 100516Z 19006KT 13/10 A3009 RMK A01 T01250101  RH  085%=      5-min Rain = 0
KWE1 100517Z 19006KT 12/10 A3009 RMK A01 T01240100  RH  085%=      5-min Rain = 0
KWE1 100518Z 19006KT 12/10 A3009 RMK A01 T01240100  RH  085%=      5-min Rain = 0
KWE1 100519Z 19007KT 12/10 A3009 RMK A01 T01230100  RH  086%=      5-min Rain = 0
KWE1 100520Z 19006KT 12/10 A3009 RMK A01 T01230100  RH  086%=      5-min Rain = 0
KWE1 100521Z 18006KT 12/10 A3009 RMK A01 T01230100  RH  086%=      5-min Rain = 0
KWE1 100522Z 18006KT 12/10 A3009 RMK A01 T01220100  RH  086%=      5-min Rain = 0
KWE1 100523Z 18006KT 12/10 A3009 RMK A01 T01220100  RH  086%=      5-min Rain = 0
KWE1 100524Z 18006KT 12/10 A3009 RMK A01 T01220100  RH  087%=      5-min Rain = 0
KWE1 100525Z 18005KT 12/10 A3009 RMK A01 T01220100  RH  087%=      5-min Rain = 0
KWE1 100526Z 18005KT 12/10 A3009 RMK A01 T01220100  RH  087%=      5-min Rain = 0
KWE1 100527Z 18005KT 12/10 A3009 RMK A01 T01210100  RH  087%=      5-min Rain = 0
KWE1 100528Z 18006KT 12/10 A3009 RMK A01 T01210099  RH  087%=      5-min Rain = 0
KWE1 100529Z 18006KT 12/10 A3009 RMK A01 T01200100  RH  087%=      5-min Rain = 0
KWE1 100530Z 18005KT 12/10 A3009 RMK A01 T01200100  RH  087%=      5-min Rain = 0
KWE1 100531Z 19006KT 12/10 A3009 RMK A01 T01200099  RH  087%=      5-min Rain = 0
KWE1 100532Z 19006KT 12/10 A3009 RMK A01 T01190099  RH  087%=      5-min Rain = 0
KWE1 100533Z 19006KT 12/10 A3009 RMK A01 T01190099  RH  088%=      5-min Rain = 0
KWE1 100534Z 19006KT 12/10 A3009 RMK A01 T01190099  RH  088%=      5-min Rain = 0
KWE1 100535Z 19007KT 12/10 A3009 RMK A01 T01190100  RH  088%=      5-min Rain = 0
KWE1 100536Z 19007KT 12/10 A3008 RMK A01 T01190100  RH  088%=      5-min Rain = 0
KWE1 100537Z 19007KT 12/10 A3008 RMK A01 T01200100  RH  088%=      5-min Rain = 0
KWE1 100538Z 18008KT 12/10 A3008 RMK A01 T01200101  RH  088%=      5-min Rain = 0
KWE1 100539Z 19007KT 12/10 A3008 RMK A01 T01200101  RH  088%=      5-min Rain = 0
KWE1 100540Z 19007KT 12/10 A3008 RMK A01 T01210101  RH  088%=      5-min Rain = 0
KWE1 100541Z 19007KT 12/10 A3008 RMK A01 T01210101  RH  088%=      5-min Rain = 0
KWE1 100542Z 19007KT 12/10 A3009 RMK A01 T01210101  RH  088%=      5-min Rain = 0
KWE1 100543Z 19007KT 12/10 A3009 RMK A01 T01210101  RH  088%=      5-min Rain = 0
KWE1 100544Z 19006KT 12/10 A3009 RMK A01 T01210101  RH  088%=      5-min Rain = 0
KWE1 100545Z 18006KT 12/10 A3009 RMK A01 T01210101  RH  087%=      5-min Rain = 0
KWE1 100546Z 18007KT 12/10 A3009 RMK A01 T01210101  RH  087%=      5-min Rain = 0
KWE1 100547Z 19007KT 12/10 A3009 RMK A01 T01210101  RH  087%=      5-min Rain = 0
KWE1 100548Z 18006KT 12/10 A3009 RMK A01 T01210101  RH  087%=      5-min Rain = 0
KWE1 100549Z 18007KT 12/10 A3009 RMK A01 T01210101  RH  087%=      5-min Rain = 0
KWE1 100550Z 19006KT 12/10 A3009 RMK A01 T01210101  RH  087%=      5-min Rain = 0
KWE1 100551Z 18006KT 12/10 A3008 RMK A01 T01210101  RH  087%=      5-min Rain = 0
KWE1 100552Z 19006KT 12/10 A3008 RMK A01 T01210101  RH  087%=      5-min Rain = 0
KWE1 100553Z 19006KT 12/10 A3008 RMK A01 T01210100  RH  087%=      5-min Rain = 0
KWE1 100554Z 19006KT 12/10 A3008 RMK A01 T01210100  RH  087%=      5-min Rain = 0
KWE1 100555Z 19007KT 12/10 A3008 RMK A01 T01200100  RH  088%=      5-min Rain = 0
KWE1 100556Z 19006KT 12/10 A3008 RMK A01 T01200100  RH  088%=      5-min Rain = 0
KWE1 100557Z 19006KT 12/10 A3008 RMK A01 T01200100  RH  088%=      5-min Rain = 0
KWE1 100558Z 19006KT 12/10 A3008 RMK A01 T01190100  RH  088%=      5-min Rain = 0
KWE1 100559Z 19006KT 12/10 A3008 RMK A01 T01190100  RH  088%=      5-min Rain = 0

Page generated in 0.088 seconds.